| time (UTC) | temp F | wind direction | speed MPH | gust MPH | rain 1hr in | rain 24hr in | rain mn in | humidity % | barometer mb |
| 20260510030825 | 55 | 144 | 6.0 | 9.0 | 0.00 | 0.00 | 0.00 | 1 | 1007.9 |
| 20260510030748 | 55 | 175 | 5.0 | 9.0 | 0.00 | 0.00 | 0.00 | 1 | 1007.9 |
| 20260510030711 | 55 | 180 | 4.0 | 8.0 | 0.00 | 0.00 | 0.00 | 1 | 1007.9 |
| 20260510030556 | 55 | 125 | 3.0 | 8.0 | 0.00 | 0.00 | 0.00 | 1 | 1007.9 |
| 20260510030519 | 55 | 195 | 4.0 | 8.0 | 0.00 | 0.00 | 0.00 | 1 | 1007.9 |
| 20260510030323 | 55 | 194 | 5.0 | 8.0 | 0.00 | 0.00 | 0.00 | 1 | 1007.8 |
| 20260510030224 | 55 | 215 | 5.0 | 8.0 | 0.00 | 0.00 | 0.00 | 1 | 1007.8 |
| 20260510030107 | 55 | 164 | 6.0 | 10.0 | 0.00 | 0.00 | 0.00 | 1 | 1007.9 |
| 20260510030033 | 55 | 156 | 6.0 | 9.0 | 0.00 | 0.00 | 0.00 | 1 | 1007.8 |
| 20260510025836 | 55 | 183 | 6.0 | 9.0 | 0.00 | 0.00 | 0.00 | 1 | 1007.9 |
| 20260510025739 | 55 | 158 | 4.0 | 9.0 | 0.00 | 0.00 | 0.00 | 1 | 1007.9 |
| 20260510025642 | 55 | 153 | 3.0 | 9.0 | 0.00 | 0.00 | 0.00 | 1 | 1007.9 |
| 20260510025605 | 55 | 165 | 3.0 | 9.0 | 0.00 | 0.00 | 0.00 | 1 | 1007.9 |
| 20260510025528 | 55 | 206 | 3.0 | 9.0 | 0.00 | 0.00 | 0.00 | 1 | 1007.9 |
| 20260510025400 | 55 | 147 | 3.0 | 9.0 | 0.00 | 0.00 | 0.00 | 1 | 1007.9 |
| 20260510025232 | 55 | 130 | 3.0 | 9.0 | 0.00 | 0.00 | 0.00 | 1 | 1008.0 |
| 20260510025156 | 54 | 184 | 3.0 | 9.0 | 0.00 | 0.00 | 0.00 | 1 | 1008.0 |
| 20260510025025 | 54 | 147 | 4.0 | 9.0 | 0.00 | 0.00 | 0.00 | 1 | 1008.0 |
| 20260510024941 | 55 | 158 | 5.0 | 8.0 | 0.00 | 0.00 | 0.00 | 1 | 1008.0 |
| 20260510024733 | 55 | 209 | 2.0 | 8.0 | 0.00 | 0.00 | 0.00 | 1 | 1008.1 |
| 20260510024636 | 55 | 192 | 1.0 | 8.0 | 0.00 | 0.00 | 0.00 | 1 | 1008.0 |
| 20260510024559 | 55 | 192 | 2.0 | 8.0 | 0.00 | 0.00 | 0.00 | 1 | 1008.0 |
| 20260510024522 | 55 | 192 | 3.0 | 8.0 | 0.00 | 0.00 | 0.00 | 1 | 1007.9 |
| 20260510024325 | 55 | 219 | 3.0 | 9.0 | 0.00 | 0.00 | 0.00 | 1 | 1007.9 |
| 20260510024248 | 55 | 213 | 3.0 | 9.0 | 0.00 | 0.00 | 0.00 | 1 | 1007.9 |
| 20260510024132 | 55 | 144 | 3.0 | 9.0 | 0.00 | 0.00 | 0.00 | 1 | 1007.9 |
| 20260510024057 | 55 | 188 | 3.0 | 9.0 | 0.00 | 0.00 | 0.00 | 1 | 1007.9 |
| 20260510024000 | 55 | 194 | 3.0 | 9.0 | 0.00 | 0.00 | 0.00 | 1 | 1007.9 |
| 20260510023904 | 54 | 186 | 4.0 | 11.0 | 0.00 | 0.00 | 0.00 | 1 | 1007.9 |
| 20260510023825 | 54 | 192 | 5.0 | 11.0 | 0.00 | 0.00 | 0.00 | 1 | 1008.0 |
| 20260510023629 | 54 | 151 | 4.0 | 11.0 | 0.00 | 0.00 | 0.00 | 1 | 1008.0 |
| 20260510023531 | 54 | 123 | 5.0 | 11.0 | 0.00 | 0.00 | 0.00 | 1 | 1008.0 |
| 20260510023435 | 54 | 175 | 4.0 | 11.0 | 0.00 | 0.00 | 0.00 | 1 | 1007.9 |
| 20260510023357 | 54 | 194 | 3.0 | 11.0 | 0.00 | 0.00 | 0.00 | 1 | 1008.0 |
| 20260510023259 | 54 | 206 | 4.0 | 11.0 | 0.00 | 0.00 | 0.00 | 1 | 1008.0 |
| 20260510023202 | 54 | 107 | 5.0 | 11.0 | 0.00 | 0.00 | 0.00 | 1 | 1007.9 |
| 20260510023104 | 54 | 169 | 4.0 | 11.0 | 0.00 | 0.00 | 0.00 | 1 | 1007.9 |
| 20260510023029 | 54 | 198 | 4.0 | 11.0 | 0.00 | 0.00 | 0.00 | 1 | 1007.8 |
| 20260510022831 | 54 | 165 | 5.0 | 11.0 | 0.00 | 0.00 | 0.00 | 1 | 1007.8 |
| 20260510022754 | 54 | 140 | 4.0 | 11.0 | 0.00 | 0.00 | 0.00 | 1 | 1007.8 |
| 20260510022639 | 54 | 139 | 2.0 | 11.0 | 0.00 | 0.00 | 0.00 | 1 | 1007.9 |
| 20260510022601 | 54 | 131 | 3.0 | 11.0 | 0.00 | 0.00 | 0.00 | 1 | 1007.9 |
| 20260510022432 | 54 | 149 | 7.0 | 11.0 | 0.00 | 0.00 | 0.00 | 1 | 1007.9 |
| 20260510022328 | 54 | 133 | 6.0 | 11.0 | 0.00 | 0.00 | 0.00 | 1 | 1007.9 |
| 20260510022159 | 54 | 150 | 4.0 | 11.0 | 0.00 | 0.00 | 0.00 | 1 | 1008.0 |
| 20260510022102 | 54 | 138 | 5.0 | 11.0 | 0.00 | 0.00 | 0.00 | 1 | 1008.0 |
| 20260510021925 | 54 | 167 | 5.0 | 11.0 | 0.00 | 0.00 | 0.00 | 1 | 1008.0 |
| 20260510021852 | 54 | 178 | 5.0 | 11.0 | 0.00 | 0.00 | 0.00 | 1 | 1008.1 |
| 20260510021635 | 54 | 119 | 5.0 | 11.0 | 0.00 | 0.00 | 0.00 | 1 | 1008.1 |
| 20260510021539 | 54 | 146 | 6.0 | 11.0 | 0.00 | 0.00 | 0.00 | 1 | 1008.1 |
| 20260510021441 | 54 | 151 | 7.0 | 11.0 | 0.00 | 0.00 | 0.00 | 1 | 1008.2 |
| 20260510021344 | 54 | 176 | 5.0 | 9.0 | 0.00 | 0.00 | 0.00 | 1 | 1008.2 |
| 20260510021238 | 54 | 171 | 4.0 | 7.0 | 0.00 | 0.00 | 0.00 | 1 | 1008.2 |
| 20260510021201 | 54 | 169 | 4.0 | 10.0 | 0.00 | 0.00 | 0.00 | 1 | 1008.2 |
| 20260510021105 | 54 | 118 | 3.0 | 10.0 | 0.00 | 0.00 | 0.00 | 1 | 1008.2 |
| 20260510021028 | 54 | 167 | 3.0 | 10.0 | 0.00 | 0.00 | 0.00 | 1 | 1008.1 |
| 20260510020836 | 54 | 157 | 2.0 | 10.0 | 0.00 | 0.00 | 0.00 | 1 | 1008.1 |
| 20260510020738 | 53 | 175 | 2.0 | 10.0 | 0.00 | 0.00 | 0.00 | 1 | 1008.1 |
| 20260510020624 | 53 | 125 | 3.0 | 10.0 | 0.00 | 0.00 | 0.00 | 1 | 1008.2 |
| 20260510020547 | 53 | 161 | 5.0 | 10.0 | 0.00 | 0.00 | 0.00 | 1 | 1008.2 |
| 20260510020330 | 53 | 167 | 3.0 | 8.0 | 0.00 | 0.00 | 0.00 | 1 | 1008.2 |
| 20260510020253 | 53 | 142 | 4.0 | 8.0 | 0.00 | 0.00 | 0.00 | 1 | 1008.2 |
| 20260510020138 | 53 | 148 | 5.0 | 8.0 | 0.00 | 0.00 | 0.00 | 1 | 1008.2 |
| 20260510020044 | 53 | 158 | 4.0 | 8.0 | 0.00 | 0.00 | 0.00 | 1 | 1008.2 |
| 20260510015939 | 52 | 135 | 3.0 | 8.0 | 0.00 | 0.00 | 0.00 | 1 | 1008.2 |
| 20260510015841 | 52 | 160 | 4.0 | 8.0 | 0.00 | 0.00 | 0.00 | 1 | 1008.3 |
| 20260510015756 | 52 | 146 | 5.0 | 8.0 | 0.00 | 0.00 | 0.00 | 1 | 1008.3 |
| 20260510015606 | 52 | 146 | 5.0 | 8.0 | 0.00 | 0.00 | 0.00 | 1 | 1008.3 |
| 20260510015530 | 52 | 136 | 4.0 | 6.0 | 0.00 | 0.00 | 0.00 | 1 | 1008.3 |
| 20260510015332 | 52 | 140 | 2.0 | 4.0 | 0.00 | 0.00 | 0.00 | 1 | 1008.3 |
| 20260510015255 | 52 | 135 | 2.0 | 4.0 | 0.00 | 0.00 | 0.00 | 1 | 1008.3 |
| 20260510015140 | 52 | 136 | 2.0 | 4.0 | 0.00 | 0.00 | 0.00 | 1 | 1008.3 |
| 20260510015049 | 52 | 136 | 2.0 | 4.0 | 0.00 | 0.00 | 0.00 | 1 | 1008.3 |
| 20260510014941 | 52 | 137 | 0.0 | 3.0 | 0.00 | 0.00 | 0.00 | 1 | 1008.3 |
| 20260510014904 | 52 | 153 | 0.0 | 3.0 | 0.00 | 0.00 | 0.00 | 1 | 1008.3 |
| 20260510014808 | 51 | 153 | 0.0 | 3.0 | 0.00 | 0.00 | 0.00 | 1 | 1008.3 |
| 20260510014730 | 51 | 153 | 0.0 | 3.0 | 0.00 | 0.00 | 0.00 | 1 | 1008.4 |
| 20260510014523 | 51 | 153 | 2.0 | 3.0 | 0.00 | 0.00 | 0.00 | 1 | 1008.4 |
| 20260510014425 | 51 | 129 | 2.0 | 3.0 | 0.00 | 0.00 | 0.00 | 1 | 1008.4 |
| 20260510014340 | 51 | 221 | 1.0 | 3.0 | 0.00 | 0.00 | 0.00 | 1 | 1008.4 |
| 20260510014241 | 51 | 221 | 1.0 | 3.0 | 0.00 | 0.00 | 0.00 | 1 | 1008.4 |
| 20260510014143 | 51 | 164 | 1.0 | 3.0 | 0.00 | 0.00 | 0.00 | 1 | 1008.4 |
| 20260510014104 | 51 | 164 | 2.0 | 3.0 | 0.00 | 0.00 | 0.00 | 1 | 1008.4 |
| 20260510014008 | 51 | 184 | 2.0 | 3.0 | 0.00 | 0.00 | 0.00 | 1 | 1008.4 |
| 20260510013930 | 51 | 185 | 2.0 | 3.0 | 0.00 | 0.00 | 0.00 | 1 | 1008.4 |
| 20260510013750 | 51 | 200 | 2.0 | 3.0 | 0.00 | 0.00 | 0.00 | 1 | 1008.4 |
| 20260510013652 | 51 | 133 | 2.0 | 3.0 | 0.00 | 0.00 | 0.00 | 1 | 1008.3 |
| 20260510013534 | 51 | 126 | 2.0 | 3.0 | 0.00 | 0.00 | 0.00 | 1 | 1008.3 |
| 20260510013458 | 51 | 140 | 1.0 | 3.0 | 0.00 | 0.00 | 0.00 | 1 | 1008.3 |
| 20260510013420 | 51 | 140 | 1.0 | 3.0 | 0.00 | 0.00 | 0.00 | 1 | 1008.4 |
| 20260510013222 | 51 | 211 | 0.0 | 1.0 | 0.00 | 0.00 | 0.00 | 1 | 1008.4 |
| 20260510013146 | 51 | 211 | 0.0 | 1.0 | 0.00 | 0.00 | 0.00 | 1 | 1008.4 |
| 20260510013034 | 51 | 211 | 0.0 | 1.0 | 0.00 | 0.00 | 0.00 | 1 | 1008.4 |
| 20260510012958 | 51 | 211 | 0.0 | 1.0 | 0.00 | 0.00 | 0.00 | 1 | 1008.4 |
| 20260510012915 | 51 | 211 | 0.0 | 1.0 | 0.00 | 0.00 | 0.00 | 1 | 1008.4 |
| 20260510012744 | 51 | 211 | 0.0 | 0.0 | 0.00 | 0.00 | 0.00 | 1 | 1008.5 |
| 20260510012647 | 51 | 211 | 0.0 | 0.0 | 0.00 | 0.00 | 0.00 | 1 | 1008.5 |
| 20260510012530 | 51 | 211 | 0.0 | 0.0 | 0.00 | 0.00 | 0.00 | 1 | 1008.5 |
| 20260510012435 | 51 | 211 | 0.0 | 0.0 | 0.00 | 0.00 | 0.00 | 1 | 1008.5 |
| 20260510012337 | 51 | 211 | 0.0 | 0.0 | 0.00 | 0.00 | 0.00 | 1 | 1008.6 |
| 20260510012301 | 51 | 211 | 0.0 | 0.0 | 0.00 | 0.00 | 0.00 | 1 | 1008.6 |
| 20260510012209 | 51 | 211 | 0.0 | 0.0 | 0.00 | 0.00 | 0.00 | 1 | 1008.6 |
| 20260510012133 | 51 | 211 | 0.0 | 0.0 | 0.00 | 0.00 | 0.00 | 1 | 1008.6 |
| 20260510011936 | 51 | 211 | 0.0 | 0.0 | 0.00 | 0.00 | 0.00 | 1 | 1008.5 |
| 20260510011839 | 51 | 211 | 0.0 | 0.0 | 0.00 | 0.00 | 0.00 | 1 | 1008.6 |
| 20260510011726 | 51 | 211 | 0.0 | 0.0 | 0.00 | 0.00 | 0.00 | 1 | 1008.6 |
| 20260510011647 | 51 | 211 | 0.0 | 0.0 | 0.00 | 0.00 | 0.00 | 1 | 1008.6 |
| 20260510011522 | 51 | 211 | 0.0 | 0.0 | 0.00 | 0.00 | 0.00 | 1 | 1008.5 |
| 20260510011427 | 51 | 211 | 0.0 | 0.0 | 0.00 | 0.00 | 0.00 | 1 | 1008.5 |
| 20260510011332 | 51 | 211 | 0.0 | 1.0 | 0.00 | 0.00 | 0.00 | 1 | 1008.5 |
| 20260510011256 | 51 | 211 | 0.0 | 1.0 | 0.00 | 0.00 | 0.00 | 1 | 1008.5 |
| 20260510011138 | 51 | 211 | 0.0 | 1.0 | 0.00 | 0.00 | 0.00 | 1 | 1008.5 |
| 20260510011102 | 51 | 211 | 0.0 | 1.0 | 0.00 | 0.00 | 0.00 | 1 | 1008.5 |
| 20260510011016 | 51 | 211 | 0.0 | 1.0 | 0.00 | 0.00 | 0.00 | 1 | 1008.6 |
| 20260510010828 | 51 | 211 | 0.0 | 1.0 | 0.00 | 0.00 | 0.00 | 1 | 1008.6 |
| 20260510010741 | 51 | 211 | 0.0 | 1.0 | 0.00 | 0.00 | 0.00 | 1 | 1008.6 |
| 20260510010645 | 51 | 211 | 0.0 | 1.0 | 0.00 | 0.00 | 0.00 | 1 | 1008.6 |
| 20260510010549 | 51 | 211 | 0.0 | 1.0 | 0.00 | 0.00 | 0.00 | 1 | 1008.6 |
| 20260510010434 | 51 | 211 | 0.0 | 1.0 | 0.00 | 0.00 | 0.00 | 1 | 1008.6 |
| 20260510010339 | 51 | 211 | 0.0 | 1.0 | 0.00 | 0.00 | 0.00 | 1 | 1008.6 |
| 20260510010240 | 51 | 211 | 0.0 | 1.0 | 0.00 | 0.00 | 0.00 | 1 | 1008.6 |
| 20260510010156 | 51 | 211 | 0.0 | 1.0 | 0.00 | 0.00 | 0.00 | 1 | 1008.6 |
| 20260510010119 | 51 | 211 | 0.0 | 1.0 | 0.00 | 0.00 | 0.00 | 1 | 1008.6 |
| 20260510010041 | 51 | 211 | 0.0 | 1.0 | 0.00 | 0.00 | 0.00 | 1 | 1008.5 |
| 20260510005904 | 51 | 211 | 0.0 | 1.0 | 0.00 | 0.00 | 0.00 | 1 | 1008.6 |
| 20260510005825 | 51 | 211 | 0.0 | 1.0 | 0.00 | 0.00 | 0.00 | 1 | 1008.5 |
| 20260510005637 | 51 | 211 | 0.0 | 1.0 | 0.00 | 0.00 | 0.00 | 1 | 1008.6 |
| 20260510005535 | 51 | 211 | 0.0 | 1.0 | 0.00 | 0.00 | 0.00 | 1 | 1008.6 |
| 20260510005459 | 51 | 211 | 0.0 | 1.0 | 0.00 | 0.00 | 0.00 | 1 | 1008.6 |
| 20260510005401 | 51 | 211 | 0.0 | 0.0 | 0.00 | 0.00 | 0.00 | 1 | 1008.5 |
| 20260510005306 | 51 | 211 | 0.0 | 0.0 | 0.00 | 0.00 | 0.00 | 1 | 1008.5 |
| 20260510005226 | 51 | 211 | 0.0 | 0.0 | 0.00 | 0.00 | 0.00 | 1 | 1008.5 |
| 20260510005028 | 51 | 211 | 0.0 | 0.0 | 0.00 | 0.00 | 0.00 | 1 | 1008.6 |
| 20260510004951 | 51 | 211 | 0.0 | 0.0 | 0.00 | 0.00 | 0.00 | 1 | 1008.6 |
| 20260510004836 | 51 | 211 | 0.0 | 0.0 | 0.00 | 0.00 | 0.00 | 1 | 1008.6 |
| 20260510004737 | 51 | 211 | 0.0 | 0.0 | 0.00 | 0.00 | 0.00 | 1 | 1008.7 |
| 20260510004518 | 51 | 211 | 0.0 | 0.0 | 0.00 | 0.00 | 0.00 | 1 | 1008.8 |
| 20260510004334 | 51 | 211 | 0.0 | 0.0 | 0.00 | 0.00 | 0.00 | 1 | 1008.8 |
| 20260510004236 | 51 | 211 | 0.0 | 0.0 | 0.00 | 0.00 | 0.00 | 1 | 1008.8 |
| 20260510004140 | 51 | 211 | 0.0 | 0.0 | 0.00 | 0.00 | 0.00 | 1 | 1008.8 |
| 20260510004102 | 51 | 211 | 0.0 | 0.0 | 0.00 | 0.00 | 0.00 | 1 | 1008.8 |
| 20260510003933 | 51 | 211 | 0.0 | 0.0 | 0.00 | 0.00 | 0.00 | 1 | 1008.7 |
| 20260510003816 | 51 | 211 | 0.0 | 0.0 | 0.00 | 0.00 | 0.00 | 1 | 1008.7 |
| 20260510003738 | 51 | 211 | 0.0 | 0.0 | 0.00 | 0.00 | 0.00 | 1 | 1008.6 |
| 20260510003610 | 51 | 211 | 0.0 | 0.0 | 0.00 | 0.00 | 0.00 | 1 | 1008.6 |
| 20260510003526 | 51 | 211 | 0.0 | 0.0 | 0.00 | 0.00 | 0.00 | 1 | 1008.6 |
| 20260510003340 | 51 | 211 | 0.0 | 0.0 | 0.00 | 0.00 | 0.00 | 1 | 1008.5 |
| 20260510003304 | 51 | 211 | 0.0 | 0.0 | 0.00 | 0.00 | 0.00 | 1 | 1008.5 |
| 20260510003218 | 51 | 211 | 0.0 | 0.0 | 0.00 | 0.00 | 0.00 | 1 | 1008.6 |
| 20260510003030 | 51 | 211 | 0.0 | 0.0 | 0.00 | 0.00 | 0.00 | 1 | 1008.6 |
| 20260510002925 | 51 | 211 | 0.0 | 0.0 | 0.00 | 0.00 | 0.00 | 1 | 1008.6 |
| 20260510002849 | 51 | 211 | 0.0 | 0.0 | 0.00 | 0.00 | 0.00 | 1 | 1008.6 |
| 20260510002723 | 51 | 211 | 0.0 | 0.0 | 0.00 | 0.00 | 0.00 | 1 | 1008.6 |
| 20260510002525 | 51 | 211 | 0.0 | 0.0 | 0.00 | 0.00 | 0.00 | 1 | 1008.6 |
| 20260510002433 | 51 | 211 | 0.0 | 0.0 | 0.00 | 0.00 | 0.00 | 1 | 1008.6 |
| 20260510002337 | 51 | 211 | 0.0 | 0.0 | 0.00 | 0.00 | 0.00 | 1 | 1008.6 |
| 20260510002301 | 51 | 211 | 0.0 | 0.0 | 0.00 | 0.00 | 0.00 | 1 | 1008.6 |
| 20260510002223 | 51 | 211 | 0.0 | 0.0 | 0.00 | 0.00 | 0.00 | 1 | 1008.6 |
| 20260510002028 | 51 | 211 | 0.0 | 0.0 | 0.00 | 0.00 | 0.00 | 1 | 1008.7 |
| 20260510001932 | 51 | 211 | 0.0 | 0.0 | 0.00 | 0.00 | 0.00 | 1 | 1008.7 |
| 20260510001835 | 51 | 211 | 0.0 | 0.0 | 0.00 | 0.00 | 0.00 | 1 | 1008.7 |
| 20260510001758 | 51 | 211 | 0.0 | 0.0 | 0.00 | 0.00 | 0.00 | 1 | 1008.7 |
| 20260510001720 | 51 | 211 | 0.0 | 0.0 | 0.00 | 0.00 | 0.00 | 1 | 1008.7 |
| 20260510001604 | 51 | 211 | 0.0 | 0.0 | 0.00 | 0.00 | 0.00 | 1 | 1008.7 |
| 20260510001526 | 51 | 211 | 0.0 | 0.0 | 0.00 | 0.00 | 0.00 | 1 | 1008.7 |
| 20260510001336 | 51 | 211 | 0.0 | 0.0 | 0.00 | 0.00 | 0.00 | 1 | 1008.7 |
| 20260510001238 | 51 | 211 | 0.0 | 0.0 | 0.00 | 0.00 | 0.00 | 1 | 1008.7 |
| 20260510001122 | 51 | 211 | 0.0 | 0.0 | 0.00 | 0.00 | 0.00 | 1 | 1008.7 |
| 20260510001046 | 51 | 211 | 0.0 | 0.0 | 0.00 | 0.00 | 0.00 | 1 | 1008.7 |
| 20260510000942 | 51 | 211 | 0.0 | 0.0 | 0.00 | 0.00 | 0.00 | 1 | 1008.6 |
| 20260510000827 | 51 | 211 | 0.0 | 0.0 | 0.00 | 0.00 | 0.00 | 1 | 1008.6 |
| 20260510000726 | 51 | 211 | 0.0 | 0.0 | 0.00 | 0.00 | 0.00 | 1 | 1008.6 |
| 20260510000654 | 51 | 211 | 0.0 | 0.0 | 0.00 | 0.00 | 0.00 | 1 | 1008.6 |
| 20260510000538 | 51 | 211 | 0.0 | 0.0 | 0.00 | 0.00 | 0.00 | 1 | 1008.5 |
| 20260510000502 | 51 | 211 | 0.0 | 0.0 | 0.00 | 0.00 | 0.00 | 1 | 1008.5 |
| 20260510000418 | 51 | 211 | 0.0 | 0.0 | 0.00 | 0.00 | 0.00 | 1 | 1008.5 |
| 20260510000229 | 51 | 211 | 0.0 | 0.0 | 0.00 | 0.00 | 0.00 | 1 | 1008.5 |
| 20260510000123 | 52 | 211 | 0.0 | 0.0 | 0.00 | 0.00 | 0.00 | 1 | 1008.5 |
| 20260510000047 | 52 | 211 | 0.0 | 0.0 | 0.00 | 0.00 | 0.00 | 1 | 1008.5 |
| 20260510000004 | 52 | 211 | 0.0 | 0.0 | 0.00 | 0.00 | 0.00 | 1 | 1008.5 |
| 20260509235926 | 52 | 211 | 0.0 | 0.0 | 0.00 | 0.00 | 0.00 | 1 | 1008.5 |
| 20260509235740 | 52 | 211 | 0.0 | 0.0 | 0.00 | 0.00 | 0.00 | 1 | 1008.5 |
| 20260509235616 | 52 | 211 | 0.0 | 0.0 | 0.00 | 0.00 | 0.00 | 1 | 1008.5 |
| 20260509235529 | 52 | 211 | 0.0 | 0.0 | 0.00 | 0.00 | 0.00 | 1 | 1008.5 |
| 20260509235450 | 52 | 211 | 0.0 | 0.0 | 0.00 | 0.00 | 0.00 | 1 | 1008.5 |
| 20260509235353 | 52 | 211 | 0.0 | 1.0 | 0.00 | 0.00 | 0.00 | 1 | 1008.5 |
| 20260509235238 | 52 | 211 | 0.0 | 1.0 | 0.00 | 0.00 | 0.00 | 1 | 1008.5 |
| 20260509235200 | 52 | 211 | 0.0 | 2.0 | 0.00 | 0.00 | 0.00 | 1 | 1008.5 |
| 20260509235022 | 52 | 211 | 0.0 | 2.0 | 0.00 | 0.00 | 0.00 | 1 | 1008.5 |
| 20260509234956 | 52 | 211 | 0.0 | 2.0 | 0.00 | 0.00 | 0.00 | 1 | 1008.5 |
| 20260509234916 | 52 | 211 | 0.0 | 2.0 | 0.00 | 0.00 | 0.00 | 1 | 1008.5 |
| 20260509234726 | 52 | 211 | 0.0 | 2.0 | 0.00 | 0.00 | 0.00 | 1 | 1008.5 |
| 20260509234643 | 52 | 211 | 0.0 | 2.0 | 0.00 | 0.00 | 0.00 | 1 | 1008.5 |
| 20260509234501 | 52 | 211 | 0.0 | 2.0 | 0.00 | 0.00 | 0.00 | 1 | 1008.5 |
| 20260509234345 | 52 | 211 | 0.0 | 2.0 | 0.00 | 0.00 | 0.00 | 1 | 1008.5 |
| 20260509234238 | 52 | 211 | 0.0 | 2.0 | 0.00 | 0.00 | 0.00 | 1 | 1008.4 |
| 20260509234202 | 52 | 211 | 0.0 | 2.0 | 0.00 | 0.00 | 0.00 | 1 | 1008.4 |
| 20260509234106 | 52 | 211 | 0.0 | 2.0 | 0.00 | 0.00 | 0.00 | 1 | 1008.4 |
| 20260509234028 | 52 | 212 | 0.0 | 2.0 | 0.00 | 0.00 | 0.00 | 1 | 1008.4 |
| 20260509233837 | 52 | 140 | 0.0 | 2.0 | 0.00 | 0.00 | 0.00 | 1 | 1008.4 |
| 20260509233739 | 52 | 140 | 1.0 | 2.0 | 0.00 | 0.00 | 0.00 | 1 | 1008.5 |
| 20260509233623 | 52 | 140 | 1.0 | 2.0 | 0.00 | 0.00 | 0.00 | 1 | 1008.4 |
| 20260509233547 | 52 | 148 | 0.0 | 2.0 | 0.00 | 0.00 | 0.00 | 1 | 1008.4 |
| 20260509233452 | 52 | 148 | 1.0 | 2.0 | 0.00 | 0.00 | 0.00 | 1 | 1008.4 |
| 20260509233353 | 52 | 148 | 1.0 | 2.0 | 0.00 | 0.00 | 0.00 | 1 | 1008.5 |
| 20260509233136 | 52 | 175 | 1.0 | 3.0 | 0.00 | 0.00 | 0.00 | 1 | 1008.4 |
| 20260509233039 | 52 | 173 | 1.0 | 3.0 | 0.00 | 0.00 | 0.00 | 1 | 1008.5 |
| 20260509232928 | 52 | 205 | 0.0 | 3.0 | 0.00 | 0.00 | 0.00 | 1 | 1008.4 |
| 20260509232850 | 52 | 205 | 0.0 | 3.0 | 0.00 | 0.00 | 0.00 | 1 | 1008.4 |
| 20260509232720 | 52 | 205 | 0.0 | 4.0 | 0.00 | 0.00 | 0.00 | 1 | 1008.5 |
| 20260509232634 | 52 | 205 | 0.0 | 4.0 | 0.00 | 0.00 | 0.00 | 1 | 1008.5 |
| 20260509232503 | 52 | 205 | 1.0 | 4.0 | 0.00 | 0.00 | 0.00 | 1 | 1008.5 |
| 20260509232404 | 52 | 205 | 2.0 | 4.0 | 0.00 | 0.00 | 0.00 | 1 | 1008.5 |
| 20260509232318 | 52 | 205 | 2.0 | 4.0 | 0.00 | 0.00 | 0.00 | 1 | 1008.5 |
| 20260509232130 | 52 | 206 | 2.0 | 4.0 | 0.00 | 0.00 | 0.00 | 1 | 1008.5 |
| 20260509232047 | 52 | 201 | 2.0 | 4.0 | 0.00 | 0.00 | 0.00 | 1 | 1008.5 |
| 20260509231835 | 52 | 215 | 2.0 | 4.0 | 0.00 | 0.00 | 0.00 | 1 | 1008.4 |
| 20260509231753 | 52 | 230 | 1.0 | 4.0 | 0.00 | 0.00 | 0.00 | 1 | 1008.4 |
| 20260509231720 | 52 | 223 | 1.0 | 4.0 | 0.00 | 0.00 | 0.00 | 1 | 1008.4 |
| 20260509231514 | 52 | 202 | 2.0 | 5.0 | 0.00 | 0.00 | 0.00 | 1 | 1008.4 |
| 20260509231428 | 52 | 210 | 0.0 | 5.0 | 0.00 | 0.00 | 0.00 | 1 | 1008.4 |
| 20260509231331 | 52 | 225 | 0.0 | 5.0 | 0.00 | 0.00 | 0.00 | 1 | 1008.3 |
| 20260509231254 | 52 | 225 | 1.0 | 5.0 | 0.00 | 0.00 | 0.00 | 1 | 1008.3 |
| 20260509231216 | 52 | 225 | 1.0 | 5.0 | 0.00 | 0.00 | 0.00 | 1 | 1008.4 |
| 20260509231040 | 52 | 250 | 2.0 | 5.0 | 0.00 | 0.00 | 0.00 | 1 | 1008.4 |
| 20260509230942 | 52 | 236 | 3.0 | 5.0 | 0.00 | 0.00 | 0.00 | 1 | 1008.3 |
| 20260509230831 | 52 | 225 | 3.0 | 5.0 | 0.00 | 0.00 | 0.00 | 1 | 1008.3 |
| 20260509230754 | 52 | 257 | 3.0 | 6.0 | 0.00 | 0.00 | 0.00 | 1 | 1008.3 |
| 20260509230617 | 52 | 190 | 3.0 | 5.0 | 0.00 | 0.00 | 0.00 | 1 | 1008.3 |
| 20260509230541 | 52 | 169 | 3.0 | 5.0 | 0.00 | 0.00 | 0.00 | 1 | 1008.3 |
| 20260509230413 | 52 | 192 | 3.0 | 6.0 | 0.00 | 0.00 | 0.00 | 1 | 1008.3 |
| 20260509230336 | 51 | 171 | 2.0 | 6.0 | 0.00 | 0.00 | 0.00 | 1 | 1008.3 |
| 20260509230139 | 51 | 176 | 3.0 | 6.0 | 0.00 | 0.00 | 0.00 | 1 | 1008.4 |
| 20260509230041 | 51 | 182 | 2.0 | 6.0 | 0.00 | 0.00 | 0.00 | 1 | 1008.4 |
| 20260509225924 | 51 | 167 | 3.0 | 7.0 | 0.00 | 0.00 | 0.00 | 1 | 1008.4 |
| 20260509225848 | 51 | 134 | 3.0 | 7.0 | 0.00 | 0.00 | 0.00 | 1 | 1008.4 |
| 20260509225728 | 51 | 166 | 4.0 | 7.0 | 0.00 | 0.00 | 0.00 | 1 | 1008.4 |
| 20260509225634 | 51 | 123 | 3.0 | 7.0 | 0.00 | 0.00 | 0.00 | 1 | 1008.4 |
| 20260509225534 | 51 | 190 | 3.0 | 7.0 | 0.00 | 0.00 | 0.00 | 1 | 1008.5 |
| 20260509225459 | 51 | 160 | 3.0 | 7.0 | 0.00 | 0.00 | 0.00 | 1 | 1008.5 |
| 20260509225341 | 51 | 195 | 3.0 | 7.0 | 0.00 | 0.00 | 0.00 | 1 | 1008.5 |
| 20260509225306 | 51 | 185 | 4.0 | 7.0 | 0.00 | 0.00 | 0.00 | 1 | 1008.5 |
| 20260509225137 | 51 | 212 | 5.0 | 7.0 | 0.00 | 0.00 | 0.00 | 1 | 1008.4 |
| 20260509225100 | 51 | 207 | 5.0 | 7.0 | 0.00 | 0.00 | 0.00 | 1 | 1008.4 |
| 20260509225005 | 51 | 196 | 4.0 | 6.0 | 0.00 | 0.00 | 0.00 | 1 | 1008.5 |
| 20260509224931 | 51 | 178 | 4.0 | 6.0 | 0.00 | 0.00 | 0.00 | 1 | 1008.5 |
| 20260509224735 | 51 | 178 | 2.0 | 5.0 | 0.00 | 0.00 | 0.00 | 1 | 1008.5 |
| 20260509224638 | 51 | 158 | 1.0 | 5.0 | 0.00 | 0.00 | 0.00 | 1 | 1008.5 |
| 20260509224533 | 51 | 158 | 1.0 | 5.0 | 0.00 | 0.00 | 0.00 | 1 | 1008.5 |
| 20260509224457 | 51 | 158 | 1.0 | 5.0 | 0.00 | 0.00 | 0.00 | 1 | 1008.5 |
| 20260509224340 | 51 | 158 | 1.0 | 5.0 | 0.00 | 0.00 | 0.00 | 1 | 1008.5 |
| 20260509224302 | 51 | 158 | 1.0 | 5.0 | 0.00 | 0.00 | 0.00 | 1 | 1008.5 |
| 20260509224216 | 51 | 158 | 1.0 | 5.0 | 0.00 | 0.00 | 0.00 | 1 | 1008.5 |
| 20260509224040 | 51 | 147 | 3.0 | 5.0 | 0.00 | 0.00 | 0.00 | 1 | 1008.6 |
| 20260509224005 | 51 | 184 | 3.0 | 5.0 | 0.00 | 0.00 | 0.00 | 1 | 1008.6 |
| 20260509223918 | 51 | 189 | 3.0 | 5.0 | 0.00 | 0.00 | 0.00 | 1 | 1008.6 |
| 20260509223730 | 51 | 158 | 3.0 | 7.0 | 0.00 | 0.00 | 0.00 | 1 | 1008.6 |
| 20260509223624 | 51 | 202 | 4.0 | 7.0 | 0.00 | 0.00 | 0.00 | 1 | 1008.6 |
| 20260509223548 | 51 | 180 | 4.0 | 7.0 | 0.00 | 0.00 | 0.00 | 1 | 1008.6 |
| 20260509223423 | 51 | 178 | 3.0 | 7.0 | 0.00 | 0.00 | 0.00 | 1 | 1008.6 |
| 20260509223339 | 51 | 159 | 2.0 | 7.0 | 0.00 | 0.00 | 0.00 | 1 | 1008.7 |
| 20260509223247 | 51 | 153 | 1.0 | 7.0 | 0.00 | 0.00 | 0.00 | 1 | 1008.7 |
| 20260509223129 | 51 | 186 | 3.0 | 7.0 | 0.00 | 0.00 | 0.00 | 1 | 1008.8 |
| 20260509223054 | 51 | 173 | 3.0 | 7.0 | 0.00 | 0.00 | 0.00 | 1 | 1008.8 |
| 20260509223009 | 51 | 117 | 3.0 | 6.0 | 0.00 | 0.00 | 0.00 | 1 | 1008.8 |
| 20260509222746 | 51 | 196 | 3.0 | 5.0 | 0.00 | 0.00 | 0.00 | 1 | 1008.8 |
| 20260509222649 | 51 | 191 | 3.0 | 5.0 | 0.00 | 0.00 | 0.00 | 1 | 1008.8 |
| 20260509222533 | 51 | 190 | 3.0 | 6.0 | 0.00 | 0.00 | 0.00 | 1 | 1008.8 |
| 20260509222456 | 51 | 151 | 3.0 | 5.0 | 0.00 | 0.00 | 0.00 | 1 | 1008.8 |
| 20260509222414 | 51 | 148 | 3.0 | 5.0 | 0.00 | 0.00 | 0.00 | 1 | 1008.8 |
| 20260509222244 | 51 | 174 | 3.0 | 5.0 | 0.00 | 0.00 | 0.00 | 1 | 1008.8 |
| 20260509222146 | 51 | 195 | 3.0 | 5.0 | 0.00 | 0.00 | 0.00 | 1 | 1008.8 |
| 20260509222113 | 51 | 175 | 3.0 | 5.0 | 0.00 | 0.00 | 0.00 | 1 | 1008.9 |
| 20260509221957 | 51 | 193 | 3.0 | 5.0 | 0.00 | 0.00 | 0.00 | 1 | 1008.9 |
| 20260509221839 | 51 | 194 | 3.0 | 5.0 | 0.00 | 0.00 | 0.00 | 1 | 1008.8 |
| 20260509221742 | 51 | 167 | 3.0 | 5.0 | 0.00 | 0.00 | 0.00 | 1 | 1008.9 |
| 20260509221704 | 51 | 184 | 2.0 | 7.0 | 0.00 | 0.00 | 0.00 | 1 | 1008.9 |
| 20260509221626 | 51 | 153 | 3.0 | 7.0 | 0.00 | 0.00 | 0.00 | 1 | 1008.9 |
| 20260509221510 | 51 | 153 | 3.0 | 7.0 | 0.00 | 0.00 | 0.00 | 1 | 1008.9 |
| 20260509221432 | 51 | 153 | 3.0 | 7.0 | 0.00 | 0.00 | 0.00 | 1 | 1008.9 |
| 20260509221235 | 51 | 180 | 3.0 | 7.0 | 0.00 | 0.00 | 0.00 | 1 | 1009.0 |
| 20260509221137 | 51 | 185 | 4.0 | 7.0 | 0.00 | 0.00 | 0.00 | 1 | 1008.9 |
| 20260509221027 | 51 | 146 | 4.0 | 7.0 | 0.00 | 0.00 | 0.00 | 1 | 1008.9 |
| 20260509220949 | 51 | 151 | 4.0 | 7.0 | 0.00 | 0.00 | 0.00 | 1 | 1009.0 |
| 20260509220731 | 51 | 156 | 4.0 | 7.0 | 0.00 | 0.00 | 0.00 | 1 | 1009.0 |
| 20260509220644 | 51 | 182 | 4.0 | 7.0 | 0.00 | 0.00 | 0.00 | 1 | 1009.0 |
| 20260509220549 | 51 | 199 | 4.0 | 8.0 | 0.00 | 0.00 | 0.00 | 1 | 1009.0 |
| 20260509220448 | 51 | 150 | 4.0 | 8.0 | 0.00 | 0.00 | 0.00 | 1 | 1009.0 |
| 20260509220352 | 51 | 160 | 4.0 | 8.0 | 0.00 | 0.00 | 0.00 | 1 | 1009.0 |
| 20260509220236 | 51 | 151 | 4.0 | 8.0 | 0.00 | 0.00 | 0.00 | 1 | 1009.0 |
| 20260509220200 | 51 | 159 | 4.0 | 8.0 | 0.00 | 0.00 | 0.00 | 1 | 1009.0 |
| 20260509220120 | 51 | 125 | 4.0 | 8.0 | 0.00 | 0.00 | 0.00 | 1 | 1009.0 |
| 20260509220021 | 51 | 202 | 4.0 | 8.0 | 0.00 | 0.00 | 0.00 | 1 | 1009.0 |
| 20260509215944 | 51 | 134 | 4.0 | 8.0 | 0.00 | 0.00 | 0.00 | 1 | 1009.0 |
| 20260509215726 | 51 | 194 | 4.0 | 9.0 | 0.00 | 0.00 | 0.00 | 1 | 1009.0 |
| 20260509215650 | 51 | 169 | 4.0 | 10.0 | 0.00 | 0.00 | 0.00 | 1 | 1009.0 |
| 20260509215533 | 51 | 131 | 3.0 | 10.0 | 0.00 | 0.00 | 0.00 | 1 | 1009.0 |
| 20260509215457 | 51 | 142 | 3.0 | 10.0 | 0.00 | 0.00 | 0.00 | 1 | 1009.0 |
| 20260509215420 | 51 | 193 | 4.0 | 10.0 | 0.00 | 0.00 | 0.00 | 1 | 1009.0 |
| 20260509215241 | 51 | 156 | 6.0 | 10.0 | 0.00 | 0.00 | 0.00 | 1 | 1009.0 |
| 20260509215145 | 52 | 146 | 7.0 | 10.0 | 0.00 | 0.00 | 0.00 | 1 | 1009.0 |
| 20260509215053 | 52 | 182 | 6.0 | 10.0 | 0.00 | 0.00 | 0.00 | 1 | 1009.0 |
| 20260509215015 | 52 | 163 | 6.0 | 10.0 | 0.00 | 0.00 | 0.00 | 1 | 1008.9 |
| 20260509214820 | 52 | 167 | 5.0 | 11.0 | 0.00 | 0.00 | 0.00 | 1 | 1009.0 |
| 20260509214733 | 52 | 184 | 4.0 | 8.0 | 0.00 | 0.00 | 0.00 | 1 | 1009.0 |
| 20260509214636 | 52 | 156 | 3.0 | 5.0 | 0.00 | 0.00 | 0.00 | 1 | 1009.0 |
| 20260509214557 | 52 | 237 | 3.0 | 9.0 | 0.00 | 0.00 | 0.00 | 1 | 1009.0 |
| 20260509214519 | 52 | 128 | 2.0 | 9.0 | 0.00 | 0.00 | 0.00 | 1 | 1009.0 |
| 20260509214401 | 52 | 159 | 2.0 | 9.0 | 0.00 | 0.00 | 0.00 | 1 | 1009.1 |
| 20260509214244 | 52 | 156 | 3.0 | 9.0 | 0.00 | 0.00 | 0.00 | 1 | 1009.1 |
| 20260509214207 | 52 | 195 | 2.0 | 9.0 | 0.00 | 0.00 | 0.00 | 1 | 1009.0 |
| 20260509214115 | 52 | 149 | 2.0 | 9.0 | 0.00 | 0.00 | 0.00 | 1 | 1009.0 |
| 20260509214038 | 52 | 238 | 2.0 | 9.0 | 0.00 | 0.00 | 0.00 | 1 | 1009.0 |
| 20260509213910 | 52 | 126 | 4.0 | 9.0 | 0.00 | 0.00 | 0.00 | 1 | 1009.1 |
| 20260509213803 | 52 | 178 | 5.0 | 9.0 | 0.00 | 0.00 | 0.00 | 1 | 1009.0 |
| 20260509213613 | 52 | 166 | 5.0 | 8.0 | 0.00 | 0.00 | 0.00 | 1 | 1009.1 |
| 20260509213515 | 52 | 204 | 5.0 | 8.0 | 0.00 | 0.00 | 0.00 | 1 | 1009.1 |
| 20260509213326 | 52 | 175 | 4.0 | 10.0 | 0.00 | 0.00 | 0.00 | 1 | 1009.1 |
| 20260509213240 | 52 | 168 | 5.0 | 10.0 | 0.00 | 0.00 | 0.00 | 1 | 1009.1 |
| 20260509213144 | 52 | 176 | 5.0 | 10.0 | 0.00 | 0.00 | 0.00 | 1 | 1009.1 |
| 20260509213048 | 52 | 169 | 5.0 | 10.0 | 0.00 | 0.00 | 0.00 | 1 | 1009.1 |
| 20260509212951 | 52 | 167 | 5.0 | 10.0 | 0.00 | 0.00 | 0.00 | 1 | 1009.1 |
| 20260509212913 | 52 | 163 | 5.0 | 10.0 | 0.00 | 0.00 | 0.00 | 1 | 1009.1 |
| 20260509212741 | 52 | 167 | 6.0 | 10.0 | 0.00 | 0.00 | 0.00 | 1 | 1009.2 |
| 20260509212645 | 52 | 151 | 7.0 | 10.0 | 0.00 | 0.00 | 0.00 | 1 | 1009.2 |
| 20260509212528 | 52 | 164 | 6.0 | 12.0 | 0.00 | 0.00 | 0.00 | 1 | 1009.2 |
| 20260509212451 | 52 | 171 | 6.0 | 11.0 | 0.00 | 0.00 | 0.00 | 1 | 1009.2 |
| 20260509212356 | 52 | 173 | 6.0 | 11.0 | 0.00 | 0.00 | 0.00 | 1 | 1009.1 |
| 20260509212318 | 52 | 158 | 6.0 | 11.0 | 0.00 | 0.00 | 0.00 | 1 | 1009.2 |
| 20260509212130 | 52 | 204 | 7.0 | 11.0 | 0.00 | 0.00 | 0.00 | 1 | 1009.2 |
| 20260509212023 | 52 | 172 | 6.0 | 12.0 | 0.00 | 0.00 | 0.00 | 1 | 1009.2 |
| 20260509211948 | 52 | 140 | 5.0 | 8.0 | 0.00 | 0.00 | 0.00 | 1 | 1009.2 |
| 20260509211816 | 52 | 163 | 4.0 | 7.0 | 0.00 | 0.00 | 0.00 | 1 | 1009.2 |
| 20260509211741 | 52 | 236 | 4.0 | 7.0 | 0.00 | 0.00 | 0.00 | 1 | 1009.2 |
| 20260509211644 | 52 | 233 | 4.0 | 7.0 | 0.00 | 0.00 | 0.00 | 1 | 1009.2 |
| 20260509211527 | 52 | 188 | 4.0 | 8.0 | 0.00 | 0.00 | 0.00 | 1 | 1009.2 |
| 20260509211450 | 52 | 191 | 3.0 | 8.0 | 0.00 | 0.00 | 0.00 | 1 | 1009.2 |
| 20260509211324 | 52 | 174 | 4.0 | 8.0 | 0.00 | 0.00 | 0.00 | 1 | 1009.2 |
| 20260509211227 | 52 | 169 | 5.0 | 9.0 | 0.00 | 0.00 | 0.00 | 1 | 1009.2 |
| 20260509211154 | 52 | 167 | 5.0 | 9.0 | 0.00 | 0.00 | 0.00 | 1 | 1009.2 |
| 20260509211118 | 52 | 161 | 4.0 | 9.0 | 0.00 | 0.00 | 0.00 | 1 | 1009.2 |
| 20260509210922 | 52 | 163 | 4.0 | 9.0 | 0.00 | 0.00 | 0.00 | 1 | 1009.2 |
| 20260509210845 | 52 | 184 | 5.0 | 9.0 | 0.00 | 0.00 | 0.00 | 1 | 1009.2 |
| 20260509210728 | 52 | 180 | 4.0 | 9.0 | 0.00 | 0.00 | 0.00 | 1 | 1009.2 |
| 20260509210652 | 52 | 182 | 3.0 | 9.0 | 0.00 | 0.00 | 0.00 | 1 | 1009.2 |
| 20260509210606 | 52 | 195 | 5.0 | 9.0 | 0.00 | 0.00 | 0.00 | 1 | 1009.2 |
| 20260509210417 | 52 | 152 | 5.0 | 9.0 | 0.00 | 0.00 | 0.00 | 1 | 1009.1 |
| 20260509210339 | 52 | 154 | 5.0 | 8.0 | 0.00 | 0.00 | 0.00 | 1 | 1009.1 |
| 20260509210210 | 52 | 179 | 6.0 | 8.0 | 0.00 | 0.00 | 0.00 | 1 | 1009.1 |
| 20260509210029 | 52 | 181 | 5.0 | 8.0 | 0.00 | 0.00 | 0.00 | 1 | 1009.2 |
| 20260509205924 | 52 | 184 | 3.0 | 9.0 | 0.00 | 0.00 | 0.00 | 1 | 1009.2 |
| 20260509205848 | 52 | 200 | 3.0 | 9.0 | 0.00 | 0.00 | 0.00 | 1 | 1009.2 |
| 20260509205731 | 52 | 178 | 3.0 | 9.0 | 0.00 | 0.00 | 0.00 | 1 | 1009.2 |
| 20260509205654 | 52 | 197 | 4.0 | 9.0 | 0.00 | 0.00 | 0.00 | 1 | 1009.2 |
| 20260509205436 | 52 | 197 | 5.0 | 9.0 | 0.00 | 0.00 | 0.00 | 1 | 1009.2 |
| 20260509205400 | 52 | 192 | 4.0 | 6.0 | 0.00 | 0.00 | 0.00 | 1 | 1009.2 |
| 20260509205307 | 52 | 180 | 2.0 | 7.0 | 0.00 | 0.00 | 0.00 | 1 | 1009.2 |
| 20260509205226 | 52 | 127 | 2.0 | 7.0 | 0.00 | 0.00 | 0.00 | 1 | 1009.2 |
| 20260509205042 | 52 | 159 | 3.0 | 7.0 | 0.00 | 0.00 | 0.00 | 1 | 1009.2 |
| 20260509204936 | 52 | 150 | 4.0 | 7.0 | 0.00 | 0.00 | 0.00 | 1 | 1009.3 |
| 20260509204900 | 52 | 135 | 4.0 | 7.0 | 0.00 | 0.00 | 0.00 | 1 | 1009.3 |
| 20260509204805 | 52 | 138 | 3.0 | 7.0 | 0.00 | 0.00 | 0.00 | 1 | 1009.2 |
| 20260509204726 | 52 | 196 | 3.0 | 7.0 | 0.00 | 0.00 | 0.00 | 1 | 1009.3 |
| 20260509204548 | 52 | 150 | 4.0 | 7.0 | 0.00 | 0.00 | 0.00 | 1 | 1009.3 |
| 20260509204441 | 52 | 164 | 3.0 | 6.0 | 0.00 | 0.00 | 0.00 | 1 | 1009.3 |
| 20260509204313 | 52 | 198 | 4.0 | 6.0 | 0.00 | 0.00 | 0.00 | 1 | 1009.3 |
| 20260509204235 | 51 | 155 | 4.0 | 6.0 | 0.00 | 0.00 | 0.00 | 1 | 1009.3 |
| 20260509204059 | 51 | 181 | 4.0 | 6.0 | 0.00 | 0.00 | 0.00 | 1 | 1009.3 |
| 20260509204021 | 51 | 178 | 3.0 | 6.0 | 0.00 | 0.00 | 0.00 | 1 | 1009.3 |
| 20260509203837 | 51 | 171 | 3.0 | 7.0 | 0.00 | 0.00 | 0.00 | 1 | 1009.3 |
| 20260509203731 | 51 | 172 | 4.0 | 7.0 | 0.00 | 0.00 | 0.00 | 1 | 1009.4 |
| 20260509203655 | 51 | 184 | 4.0 | 7.0 | 0.00 | 0.00 | 0.00 | 1 | 1009.4 |
| 20260509203600 | 51 | 163 | 4.0 | 7.0 | 0.00 | 0.00 | 0.00 | 1 | 1009.4 |
| 20260509203523 | 51 | 154 | 4.0 | 7.0 | 0.00 | 0.00 | 0.00 | 1 | 1009.4 |
| 20260509203328 | 51 | 160 | 3.0 | 7.0 | 0.00 | 0.00 | 0.00 | 1 | 1009.4 |
| 20260509203230 | 51 | 185 | 3.0 | 7.0 | 0.00 | 0.00 | 0.00 | 1 | 1009.5 |
| 20260509203133 | 51 | 161 | 4.0 | 7.0 | 0.00 | 0.00 | 0.00 | 1 | 1009.4 |
| 20260509203055 | 51 | 194 | 5.0 | 7.0 | 0.00 | 0.00 | 0.00 | 1 | 1009.4 |
| 20260509203021 | 51 | 181 | 5.0 | 8.0 | 0.00 | 0.00 | 0.00 | 1 | 1009.5 |
| 20260509202825 | 51 | 188 | 4.0 | 8.0 | 0.00 | 0.00 | 0.00 | 1 | 1009.5 |
| 20260509202727 | 51 | 174 | 4.0 | 8.0 | 0.00 | 0.00 | 0.00 | 1 | 1009.6 |
| 20260509202631 | 51 | 149 | 5.0 | 9.0 | 0.00 | 0.00 | 0.00 | 1 | 1009.5 |
| 20260509202553 | 51 | 196 | 4.0 | 8.0 | 0.00 | 0.00 | 0.00 | 1 | 1009.6 |
| 20260509202336 | 51 | 172 | 5.0 | 8.0 | 0.00 | 0.00 | 0.00 | 1 | 1009.6 |
| 20260509202239 | 51 | 175 | 4.0 | 8.0 | 0.00 | 0.00 | 0.00 | 1 | 1009.6 |
| 20260509202141 | 51 | 175 | 5.0 | 8.0 | 0.00 | 0.00 | 0.00 | 1 | 1009.5 |
| 20260509202049 | 51 | 146 | 5.0 | 8.0 | 0.00 | 0.00 | 0.00 | 1 | 1009.5 |
| 20260509201952 | 51 | 180 | 4.0 | 8.0 | 0.00 | 0.00 | 0.00 | 1 | 1009.6 |
| 20260509201854 | 51 | 202 | 4.0 | 8.0 | 0.00 | 0.00 | 0.00 | 1 | 1009.6 |
| 20260509201816 | 51 | 210 | 4.0 | 8.0 | 0.00 | 0.00 | 0.00 | 1 | 1009.6 |
| 20260509201638 | 51 | 184 | 5.0 | 8.0 | 0.00 | 0.00 | 0.00 | 1 | 1009.6 |
| 20260509201541 | 51 | 167 | 6.0 | 8.0 | 0.00 | 0.00 | 0.00 | 1 | 1009.6 |
| 20260509201427 | 51 | 160 | 5.0 | 8.0 | 0.00 | 0.00 | 0.00 | 1 | 1009.6 |
| 20260509201348 | 51 | 188 | 4.0 | 8.0 | 0.00 | 0.00 | 0.00 | 1 | 1009.6 |
| 20260509201220 | 51 | 212 | 4.0 | 8.0 | 0.00 | 0.00 | 0.00 | 1 | 1009.6 |
| 20260509201136 | 51 | 153 | 4.0 | 8.0 | 0.00 | 0.00 | 0.00 | 1 | 1009.6 |
| 20260509201006 | 51 | 191 | 4.0 | 8.0 | 0.00 | 0.00 | 0.00 | 1 | 1009.6 |
| 20260509200931 | 51 | 178 | 4.0 | 8.0 | 0.00 | 0.00 | 0.00 | 1 | 1009.6 |
| 20260509200734 | 52 | 171 | 5.0 | 8.0 | 0.00 | 0.00 | 0.00 | 1 | 1009.6 |
| 20260509200656 | 52 | 180 | 5.0 | 8.0 | 0.00 | 0.00 | 0.00 | 1 | 1009.6 |
| 20260509200600 | 52 | 191 | 4.0 | 8.0 | 0.00 | 0.00 | 0.00 | 1 | 1009.6 |
| 20260509200523 | 52 | 173 | 5.0 | 8.0 | 0.00 | 0.00 | 0.00 | 1 | 1009.6 |
| 20260509200327 | 52 | 228 | 4.0 | 8.0 | 0.00 | 0.00 | 0.00 | 1 | 1009.6 |
| 20260509200229 | 52 | 152 | 5.0 | 7.0 | 0.00 | 0.00 | 0.00 | 1 | 1009.6 |
| 20260509200133 | 52 | 185 | 5.0 | 7.0 | 0.00 | 0.00 | 0.00 | 1 | 1009.6 |
| 20260509200034 | 52 | 162 | 5.0 | 7.0 | 0.00 | 0.00 | 0.00 | 1 | 1009.6 |
| 20260509200002 | 52 | 167 | 4.0 | 7.0 | 0.00 | 0.00 | 0.00 | 1 | 1009.6 |
| 20260509195906 | 52 | 152 | 4.0 | 7.0 | 0.00 | 0.00 | 0.00 | 1 | 1009.6 |
| 20260509195808 | 52 | 182 | 4.0 | 7.0 | 0.00 | 0.00 | 0.00 | 1 | 1009.5 |
| 20260509195730 | 52 | 201 | 4.0 | 7.0 | 0.00 | 0.00 | 0.00 | 1 | 1009.6 |
| 20260509195613 | 52 | 207 | 4.0 | 7.0 | 0.00 | 0.00 | 0.00 | 1 | 1009.6 |
| 20260509195535 | 52 | 196 | 5.0 | 7.0 | 0.00 | 0.00 | 0.00 | 1 | 1009.6 |
| 20260509195345 | 52 | 166 | 4.0 | 7.0 | 0.00 | 0.00 | 0.00 | 1 | 1009.6 |
| 20260509195240 | 52 | 172 | 3.0 | 7.0 | 0.00 | 0.00 | 0.00 | 1 | 1009.6 |
| 20260509195109 | 52 | 159 | 4.0 | 7.0 | 0.00 | 0.00 | 0.00 | 1 | 1009.6 |
| 20260509195031 | 52 | 174 | 5.0 | 7.0 | 0.00 | 0.00 | 0.00 | 1 | 1009.6 |
| 20260509194835 | 52 | 191 | 4.0 | 6.0 | 0.00 | 0.00 | 0.00 | 1 | 1009.6 |
| 20260509194740 | 52 | 197 | 2.0 | 6.0 | 0.00 | 0.00 | 0.00 | 1 | 1009.6 |
| 20260509194646 | 52 | 188 | 3.0 | 6.0 | 0.00 | 0.00 | 0.00 | 1 | 1009.6 |
| 20260509194607 | 52 | 190 | 3.0 | 8.0 | 0.00 | 0.00 | 0.00 | 1 | 1009.6 |
| 20260509194439 | 52 | 221 | 4.0 | 9.0 | 0.00 | 0.00 | 0.00 | 1 | 1009.6 |
| 20260509194335 | 52 | 190 | 4.0 | 9.0 | 0.00 | 0.00 | 0.00 | 1 | 1009.6 |
| 20260509194205 | 52 | 185 | 4.0 | 9.0 | 0.00 | 0.00 | 0.00 | 1 | 1009.6 |
| 20260509194128 | 52 | 159 | 4.0 | 9.0 | 0.00 | 0.00 | 0.00 | 1 | 1009.7 |
| 20260509193931 | 52 | 155 | 4.0 | 9.0 | 0.00 | 0.00 | 0.00 | 1 | 1009.7 |
| 20260509193835 | 52 | 132 | 5.0 | 9.0 | 0.00 | 0.00 | 0.00 | 1 | 1009.7 |
| 20260509193737 | 52 | 178 | 6.0 | 9.0 | 0.00 | 0.00 | 0.00 | 1 | 1009.7 |
| 20260509193701 | 52 | 176 | 6.0 | 10.0 | 0.00 | 0.00 | 0.00 | 1 | 1009.7 |
| 20260509193628 | 52 | 180 | 5.0 | 10.0 | 0.00 | 0.00 | 0.00 | 1 | 1009.6 |
| 20260509193432 | 52 | 178 | 5.0 | 9.0 | 0.00 | 0.00 | 0.00 | 1 | 1009.7 |
| 20260509193356 | 52 | 163 | 5.0 | 10.0 | 0.00 | 0.00 | 0.00 | 1 | 1009.7 |
| 20260509193301 | 52 | 150 | 4.0 | 10.0 | 0.00 | 0.00 | 0.00 | 1 | 1009.7 |
| 20260509193141 | 52 | 148 | 5.0 | 10.0 | 0.00 | 0.00 | 0.00 | 1 | 1009.7 |
| 20260509193047 | 52 | 167 | 6.0 | 11.0 | 0.00 | 0.00 | 0.00 | 1 | 1009.7 |
| 20260509193008 | 52 | 175 | 6.0 | 11.0 | 0.00 | 0.00 | 0.00 | 1 | 1009.7 |
| 20260509192820 | 52 | 121 | 6.0 | 11.0 | 0.00 | 0.00 | 0.00 | 1 | 1009.7 |
| 20260509192730 | 52 | 164 | 7.0 | 11.0 | 0.00 | 0.00 | 0.00 | 1 | 1009.7 |
| 20260509192614 | 52 | 161 | 6.0 | 11.0 | 0.00 | 0.00 | 0.00 | 1 | 1009.8 |
| 20260509192536 | 52 | 175 | 6.0 | 11.0 | 0.00 | 0.00 | 0.00 | 1 | 1009.8 |
| 20260509192335 | 52 | 182 | 7.0 | 11.0 | 0.00 | 0.00 | 0.00 | 1 | 1009.8 |
| 20260509192237 | 52 | 222 | 7.0 | 11.0 | 0.00 | 0.00 | 0.00 | 1 | 1009.8 |
| 20260509192140 | 52 | 194 | 7.0 | 14.0 | 0.00 | 0.00 | 0.00 | 1 | 1009.8 |
| 20260509192043 | 52 | 166 | 8.0 | 14.0 | 0.00 | 0.00 | 0.00 | 1 | 1009.8 |
| 20260509191959 | 52 | 189 | 8.0 | 14.0 | 0.00 | 0.00 | 0.00 | 1 | 1009.9 |
| 20260509191717 | 53 | 202 | 5.0 | 10.0 | 0.00 | 0.00 | 0.00 | 1 | 1009.8 |
| 20260509191639 | 53 | 194 | 6.0 | 10.0 | 0.00 | 0.00 | 0.00 | 1 | 1009.9 |
| 20260509191510 | 53 | 151 | 6.0 | 10.0 | 0.00 | 0.00 | 0.00 | 1 | 1009.9 |
| 20260509191426 | 53 | 121 | 5.0 | 10.0 | 0.00 | 0.00 | 0.00 | 1 | 1009.9 |
| 20260509191309 | 53 | 163 | 6.0 | 10.0 | 0.00 | 0.00 | 0.00 | 1 | 1009.8 |
| 20260509191214 | 53 | 163 | 7.0 | 10.0 | 0.00 | 0.00 | 0.00 | 1 | 1009.9 |
| 20260509191028 | 53 | 115 | 6.0 | 10.0 | 0.00 | 0.00 | 0.00 | 1 | 1009.9 |
| 20260509190952 | 53 | 185 | 6.0 | 10.0 | 0.00 | 0.00 | 0.00 | 2 | 1009.9 |
| 20260509190855 | 53 | 207 | 6.0 | 10.0 | 0.00 | 0.00 | 0.00 | 3 | 1010.0 |
| 20260509190758 | 53 | 200 | 6.0 | 10.0 | 0.00 | 0.00 | 0.00 | 2 | 1010.0 |
| 20260509190721 | 53 | 163 | 6.0 | 9.0 | 0.00 | 0.00 | 0.00 | 2 | 1010.0 |
| 20260509190525 | 53 | 197 | 7.0 | 9.0 | 0.00 | 0.00 | 0.00 | 6 | 1009.9 |
| 20260509190428 | 53 | 190 | 7.0 | 9.0 | 0.00 | 0.00 | 0.00 | 6 | 1009.9 |
| 20260509190331 | 53 | 167 | 6.0 | 9.0 | 0.00 | 0.00 | 0.00 | 7 | 1009.9 |
| 20260509190253 | 53 | 180 | 5.0 | 9.0 | 0.00 | 0.00 | 0.00 | 6 | 1009.9 |
| 20260509190127 | 53 | 176 | 6.0 | 9.0 | 0.00 | 0.00 | 0.00 | 9 | 1009.9 |
| 20260509190023 | 53 | 167 | 6.0 | 9.0 | 0.00 | 0.00 | 0.00 | 6 | 1009.9 |
| 20260509185833 | 53 | 178 | 4.0 | 9.0 | 0.00 | 0.00 | 0.00 | 5 | 1009.9 |
| 20260509185750 | 53 | 194 | 4.0 | 9.0 | 0.00 | 0.00 | 0.00 | 5 | 1009.9 |
| 20260509185721 | 53 | 202 | 3.0 | 9.0 | 0.00 | 0.00 | 0.00 | 2 | 1009.9 |
| 20260509185534 | 53 | 158 | 4.0 | 9.0 | 0.00 | 0.00 | 0.00 | 7 | 1009.9 |
| 20260509185428 | 53 | 161 | 4.0 | 9.0 | 0.00 | 0.00 | 0.00 | 9 | 1009.9 |
| 20260509185352 | 53 | 146 | 5.0 | 9.0 | 0.00 | 0.00 | 0.00 | 9 | 1009.9 |
| 20260509185236 | 53 | 197 | 6.0 | 10.0 | 0.00 | 0.00 | 0.00 | 9 | 1010.0 |
| 20260509185202 | 53 | 166 | 4.0 | 8.0 | 0.00 | 0.00 | 0.00 | 5 | 1010.1 |
| 20260509185023 | 53 | 181 | 3.0 | 7.0 | 0.00 | 0.00 | 0.00 | 6 | 1010.1 |
| 20260509184946 | 53 | 179 | 3.0 | 7.0 | 0.00 | 0.00 | 0.00 | 7 | 1010.1 |
| 20260509184824 | 53 | 196 | 3.0 | 7.0 | 0.00 | 0.00 | 0.00 | 5 | 1010.1 |
| 20260509184727 | 53 | 158 | 3.0 | 7.0 | 0.00 | 0.00 | 0.00 | 4 | 1010.1 |
| 20260509184650 | 53 | 153 | 3.0 | 7.0 | 0.00 | 0.00 | 0.00 | 4 | 1010.1 |
| 20260509184614 | 53 | 153 | 4.0 | 7.0 | 0.00 | 0.00 | 0.00 | 6 | 1010.1 |
| 20260509184436 | 53 | 211 | 4.0 | 7.0 | 0.00 | 0.00 | 0.00 | 8 | 1010.1 |
| 20260509184359 | 53 | 156 | 4.0 | 7.0 | 0.00 | 0.00 | 0.00 | 6 | 1010.1 |
| 20260509184325 | 53 | 161 | 3.0 | 7.0 | 0.00 | 0.00 | 0.00 | 6 | 1010.1 |
| 20260509184207 | 53 | 225 | 2.0 | 9.0 | 0.00 | 0.00 | 0.00 | 7 | 1010.1 |
| 20260509184128 | 53 | 192 | 3.0 | 9.0 | 0.00 | 0.00 | 0.00 | 7 | 1010.1 |
| 20260509183932 | 53 | 152 | 3.0 | 10.0 | 0.00 | 0.00 | 0.00 | 6 | 1010.1 |
| 20260509183835 | 53 | 164 | 3.0 | 10.0 | 0.00 | 0.00 | 0.00 | 6 | 1010.1 |
| 20260509183738 | 53 | 183 | 4.0 | 10.0 | 0.00 | 0.00 | 0.00 | 6 | 1010.1 |
| 20260509183701 | 53 | 182 | 4.0 | 10.0 | 0.00 | 0.00 | 0.00 | 5 | 1010.1 |
| 20260509183624 | 53 | 172 | 4.0 | 10.0 | 0.00 | 0.00 | 0.00 | 7 | 1010.2 |
| 20260509183426 | 53 | 198 | 5.0 | 10.0 | 0.00 | 0.00 | 0.00 | 4 | 1010.2 |
| 20260509183350 | 53 | 194 | 6.0 | 10.0 | 0.00 | 0.00 | 0.00 | 3 | 1010.2 |
| 20260509183237 | 53 | 217 | 6.0 | 10.0 | 0.00 | 0.00 | 0.00 | 2 | 1010.2 |
| 20260509183200 | 53 | 193 | 5.0 | 10.0 | 0.00 | 0.00 | 0.00 | 2 | 1010.2 |
| 20260509183115 | 53 | 230 | 4.0 | 8.0 | 0.00 | 0.00 | 0.00 | 1 | 1010.2 |
| 20260509182925 | 52 | 200 | 3.0 | 7.0 | 0.00 | 0.00 | 0.00 | 1 | 1010.3 |
| 20260509182826 | 52 | 190 | 3.0 | 7.0 | 0.00 | 0.00 | 0.00 | 1 | 1010.2 |
| 20260509182629 | 52 | 188 | 3.0 | 7.0 | 0.00 | 0.00 | 0.00 | 1 | 1010.2 |
| 20260509182533 | 52 | 173 | 3.0 | 7.0 | 0.00 | 0.00 | 0.00 | 1 | 1010.2 |
| 20260509182436 | 52 | 231 | 3.0 | 7.0 | 0.00 | 0.00 | 0.00 | 1 | 1010.3 |
| 20260509182359 | 52 | 155 | 3.0 | 7.0 | 0.00 | 0.00 | 0.00 | 1 | 1010.3 |
| 20260509182236 | 52 | 143 | 4.0 | 7.0 | 0.00 | 0.00 | 0.00 | 1 | 1010.3 |
| 20260509182137 | 52 | 191 | 5.0 | 7.0 | 0.00 | 0.00 | 0.00 | 1 | 1010.3 |
| 20260509182037 | 52 | 181 | 6.0 | 8.0 | 0.00 | 0.00 | 0.00 | 1 | 1010.3 |
| 20260509182001 | 52 | 170 | 5.0 | 8.0 | 0.00 | 0.00 | 0.00 | 1 | 1010.3 |
| 20260509181823 | 52 | 190 | 4.0 | 8.0 | 0.00 | 0.00 | 0.00 | 1 | 1010.4 |
| 20260509181746 | 52 | 150 | 4.0 | 7.0 | 0.00 | 0.00 | 0.00 | 1 | 1010.4 |
| 20260509181709 | 52 | 149 | 4.0 | 7.0 | 0.00 | 0.00 | 0.00 | 1 | 1010.3 |
| 20260509181623 | 52 | 163 | 5.0 | 7.0 | 0.00 | 0.00 | 0.00 | 1 | 1010.4 |
| 20260509181526 | 52 | 174 | 5.0 | 7.0 | 0.00 | 0.00 | 0.00 | 1 | 1010.4 |
| 20260509181337 | 52 | 157 | 5.0 | 8.0 | 0.00 | 0.00 | 0.00 | 1 | 1010.4 |
| 20260509181235 | 52 | 206 | 4.0 | 7.0 | 0.00 | 0.00 | 0.00 | 1 | 1010.4 |
| 20260509181159 | 52 | 209 | 4.0 | 7.0 | 0.00 | 0.00 | 0.00 | 1 | 1010.4 |
| 20260509181102 | 52 | 201 | 3.0 | 8.0 | 0.00 | 0.00 | 0.00 | 1 | 1010.4 |
| 20260509181004 | 52 | 193 | 4.0 | 8.0 | 0.00 | 0.00 | 0.00 | 1 | 1010.4 |
| 20260509180924 | 52 | 217 | 3.0 | 8.0 | 0.00 | 0.00 | 0.00 | 1 | 1010.4 |
| 20260509180728 | 52 | 217 | 4.0 | 8.0 | 0.00 | 0.00 | 0.00 | 1 | 1010.4 |
| 20260509180649 | 52 | 194 | 5.0 | 8.0 | 0.00 | 0.00 | 0.00 | 1 | 1010.4 |
| 20260509180533 | 52 | 193 | 4.0 | 8.0 | 0.00 | 0.00 | 0.00 | 1 | 1010.4 |
| 20260509180456 | 52 | 169 | 4.0 | 8.0 | 0.00 | 0.00 | 0.00 | 1 | 1010.4 |
| 20260509180324 | 52 | 190 | 5.0 | 8.0 | 0.00 | 0.00 | 0.00 | 1 | 1010.4 |
| 20260509180246 | 52 | 172 | 5.0 | 8.0 | 0.00 | 0.00 | 0.00 | 1 | 1010.4 |
| 20260509180117 | 52 | 227 | 4.0 | 7.0 | 0.00 | 0.00 | 0.00 | 1 | 1010.4 |
| 20260509180027 | 52 | 189 | 4.0 | 7.0 | 0.00 | 0.00 | 0.00 | 1 | 1010.3 |
| 20260509175838 | 51 | 175 | 5.0 | 8.0 | 0.00 | 0.00 | 0.00 | 1 | 1010.3 |
| 20260509175734 | 51 | 159 | 5.0 | 8.0 | 0.00 | 0.00 | 0.00 | 1 | 1010.3 |
| 20260509175618 | 51 | 148 | 5.0 | 8.0 | 0.00 | 0.00 | 0.00 | 1 | 1010.3 |
| 20260509175550 | 51 | 155 | 5.0 | 8.0 | 0.00 | 0.00 | 0.00 | 1 | 1010.3 |
| 20260509175451 | 51 | 171 | 5.0 | 8.0 | 0.00 | 0.00 | 0.00 | 1 | 1010.3 |
| 20260509175355 | 51 | 194 | 5.0 | 8.0 | 0.00 | 0.00 | 0.00 | 1 | 1010.3 |
| 20260509175300 | 51 | 178 | 5.0 | 8.0 | 0.00 | 0.00 | 0.00 | 1 | 1010.3 |
| 20260509175131 | 51 | 130 | 5.0 | 8.0 | 0.00 | 0.00 | 0.00 | 1 | 1010.4 |
| 20260509175027 | 51 | 165 | 5.0 | 8.0 | 0.00 | 0.00 | 0.00 | 1 | 1010.4 |
| 20260509174838 | 51 | 165 | 4.0 | 7.0 | 0.00 | 0.00 | 0.00 | 1 | 1010.5 |
| 20260509174712 | 51 | 166 | 4.0 | 7.0 | 0.00 | 0.00 | 0.00 | 1 | 1010.5 |
| 20260509174627 | 51 | 180 | 5.0 | 7.0 | 0.00 | 0.00 | 0.00 | 1 | 1010.5 |
| 20260509174529 | 51 | 156 | 5.0 | 7.0 | 0.00 | 0.00 | 0.00 | 1 | 1010.5 |
| 20260509174454 | 51 | 161 | 4.0 | 7.0 | 0.00 | 0.00 | 0.00 | 1 | 1010.5 |
| 20260509174355 | 51 | 196 | 3.0 | 7.0 | 0.00 | 0.00 | 0.00 | 1 | 1010.5 |
| 20260509174321 | 51 | 189 | 3.0 | 7.0 | 0.00 | 0.00 | 0.00 | 1 | 1010.5 |
| 20260509174124 | 51 | 144 | 3.0 | 9.0 | 0.00 | 0.00 | 0.00 | 1 | 1010.5 |
| 20260509174026 | 51 | 177 | 4.0 | 9.0 | 0.00 | 0.00 | 0.00 | 1 | 1010.6 |
| 20260509173930 | 51 | 180 | 4.0 | 9.0 | 0.00 | 0.00 | 0.00 | 1 | 1010.6 |
| 20260509173830 | 51 | 176 | 5.0 | 9.0 | 0.00 | 0.00 | 0.00 | 1 | 1010.6 |
| 20260509173634 | 51 | 174 | 5.0 | 9.0 | 0.00 | 0.00 | 0.00 | 1 | 1010.7 |
| 20260509173537 | 51 | 169 | 5.0 | 9.0 | 0.00 | 0.00 | 0.00 | 1 | 1010.7 |
| 20260509173440 | 51 | 186 | 5.0 | 9.0 | 0.00 | 0.00 | 0.00 | 1 | 1010.7 |
| 20260509173402 | 51 | 167 | 6.0 | 9.0 | 0.00 | 0.00 | 0.00 | 1 | 1010.7 |
| 20260509173328 | 51 | 202 | 6.0 | 9.0 | 0.00 | 0.00 | 0.00 | 1 | 1010.7 |
| 20260509173133 | 51 | 188 | 4.0 | 10.0 | 0.00 | 0.00 | 0.00 | 1 | 1010.7 |
| 20260509173035 | 51 | 141 | 4.0 | 10.0 | 0.00 | 0.00 | 0.00 | 3 | 1010.7 |
| 20260509172938 | 51 | 167 | 6.0 | 10.0 | 0.00 | 0.00 | 0.00 | 5 | 1010.7 |
| 20260509172842 | 51 | 184 | 6.0 | 11.0 | 0.00 | 0.00 | 0.00 | 5 | 1010.7 |
| 20260509172735 | 51 | 129 | 6.0 | 10.0 | 0.00 | 0.00 | 0.00 | 6 | 1010.7 |
| 20260509172659 | 51 | 160 | 6.0 | 10.0 | 0.00 | 0.00 | 0.00 | 7 | 1010.7 |
| 20260509172528 | 51 | 182 | 6.0 | 11.0 | 0.00 | 0.00 | 0.00 | 8 | 1010.8 |
| 20260509172444 | 51 | 184 | 6.0 | 11.0 | 0.00 | 0.00 | 0.00 | 10 | 1010.8 |
| 20260509172314 | 51 | 148 | 5.0 | 11.0 | 0.00 | 0.00 | 0.00 | 9 | 1010.9 |
| 20260509172215 | 51 | 191 | 4.0 | 11.0 | 0.00 | 0.00 | 0.00 | 10 | 1010.8 |
| 20260509172119 | 51 | 198 | 4.0 | 11.0 | 0.00 | 0.00 | 0.00 | 12 | 1010.9 |
| 20260509172041 | 51 | 157 | 4.0 | 11.0 | 0.00 | 0.00 | 0.00 | 15 | 1010.8 |
| 20260509171820 | 51 | 161 | 5.0 | 13.0 | 0.00 | 0.00 | 0.00 | 15 | 1010.8 |
| 20260509171730 | 51 | 195 | 6.0 | 13.0 | 0.00 | 0.00 | 0.00 | 17 | 1010.9 |
| 20260509171632 | 51 | 189 | 6.0 | 13.0 | 0.00 | 0.00 | 0.00 | 17 | 1011.0 |
| 20260509171550 | 51 | 188 | 6.0 | 13.0 | 0.00 | 0.00 | 0.00 | 19 | 1010.9 |
| 20260509171358 | 51 | 153 | 6.0 | 13.0 | 0.00 | 0.00 | 0.00 | 22 | 1011.0 |
| 20260509171305 | 51 | 194 | 6.0 | 13.0 | 0.00 | 0.00 | 0.00 | 22 | 1011.0 |
| 20260509171209 | 51 | 156 | 5.0 | 13.0 | 0.00 | 0.00 | 0.00 | 24 | 1011.0 |
| 20260509171129 | 51 | 206 | 7.0 | 13.0 | 0.00 | 0.00 | 0.00 | 25 | 1011.0 |
| 20260509170933 | 51 | 194 | 5.0 | 14.0 | 0.00 | 0.00 | 0.00 | 28 | 1010.9 |
| 20260509170836 | 51 | 176 | 5.0 | 14.0 | 0.00 | 0.00 | 0.00 | 29 | 1010.9 |
| 20260509170740 | 51 | 163 | 6.0 | 14.0 | 0.00 | 0.00 | 0.00 | 32 | 1010.9 |
| 20260509170643 | 51 | 213 | 5.0 | 13.0 | 0.00 | 0.00 | 0.00 | 34 | 1010.9 |
| 20260509170539 | 51 | 182 | 6.0 | 13.0 | 0.00 | 0.00 | 0.00 | 36 | 1010.9 |
| 20260509170427 | 51 | 173 | 9.0 | 13.0 | 0.00 | 0.00 | 0.00 | 36 | 1010.9 |
| 20260509170349 | 51 | 184 | 9.0 | 13.0 | 0.00 | 0.00 | 0.00 | 38 | 1010.9 |
| 20260509170323 | 51 | 167 | 9.0 | 13.0 | 0.00 | 0.00 | 0.00 | 39 | 1010.9 |
| 20260509170125 | 51 | 174 | 8.0 | 16.0 | 0.00 | 0.00 | 0.00 | 41 | 1010.8 |
| 20260509170049 | 51 | 161 | 9.0 | 16.0 | 0.00 | 0.00 | 0.00 | 42 | 1010.8 |
| 20260509165933 | 52 | 178 | 10.0 | 17.0 | 0.00 | 0.00 | 0.00 | 43 | 1010.8 |
| 20260509165854 | 52 | 187 | 9.0 | 17.0 | 0.00 | 0.00 | 0.00 | 44 | 1010.9 |
| 20260509165754 | 52 | 121 | 7.0 | 17.0 | 0.00 | 0.00 | 0.00 | 44 | 1010.9 |
| 20260509165659 | 52 | 196 | 7.0 | 17.0 | 0.00 | 0.00 | 0.00 | 44 | 1010.9 |
| 20260509165621 | 52 | 181 | 7.0 | 17.0 | 0.00 | 0.00 | 0.00 | 45 | 1010.9 |
| 20260509165427 | 52 | 181 | 10.0 | 17.0 | 0.00 | 0.00 | 0.00 | 46 | 1010.9 |
| 20260509165330 | 52 | 140 | 11.0 | 17.0 | 0.00 | 0.00 | 0.00 | 46 | 1010.9 |
| 20260509165234 | 52 | 158 | 10.0 | 17.0 | 0.00 | 0.00 | 0.00 | 47 | 1010.9 |
| 20260509165156 | 52 | 191 | 7.0 | 13.0 | 0.00 | 0.00 | 0.00 | 47 | 1010.9 |
| 20260509165026 | 52 | 188 | 7.0 | 12.0 | 0.00 | 0.00 | 0.00 | 48 | 1010.9 |
| 20260509164928 | 52 | 171 | 7.0 | 12.0 | 0.00 | 0.00 | 0.00 | 48 | 1010.9 |
| 20260509164810 | 52 | 164 | 7.0 | 12.0 | 0.00 | 0.00 | 0.00 | 48 | 1010.9 |
| 20260509164731 | 52 | 207 | 7.0 | 12.0 | 0.00 | 0.00 | 0.00 | 49 | 1010.9 |
| 20260509164536 | 52 | 181 | 8.0 | 12.0 | 0.00 | 0.00 | 0.00 | 50 | 1010.9 |
| 20260509164438 | 53 | 195 | 8.0 | 13.0 | 0.00 | 0.00 | 0.00 | 50 | 1010.9 |
| 20260509164321 | 53 | 209 | 8.0 | 14.0 | 0.00 | 0.00 | 0.00 | 51 | 1010.9 |
| 20260509164244 | 53 | 202 | 8.0 | 14.0 | 0.00 | 0.00 | 0.00 | 51 | 1010.9 |
| 20260509164147 | 53 | 148 | 8.0 | 14.0 | 0.00 | 0.00 | 0.00 | 51 | 1010.9 |
| 20260509164110 | 53 | 169 | 8.0 | 14.0 | 0.00 | 0.00 | 0.00 | 51 | 1010.8 |
| 20260509164042 | 53 | 149 | 8.0 | 14.0 | 0.00 | 0.00 | 0.00 | 51 | 1010.9 |
| 20260509163906 | 53 | 149 | 7.0 | 14.0 | 0.00 | 0.00 | 0.00 | 52 | 1010.9 |
| 20260509163828 | 53 | 138 | 6.0 | 11.0 | 0.00 | 0.00 | 0.00 | 52 | 1010.9 |
| 20260509163640 | 53 | 139 | 8.0 | 15.0 | 0.00 | 0.00 | 0.00 | 52 | 1010.9 |
| 20260509163536 | 53 | 186 | 7.0 | 15.0 | 0.00 | 0.00 | 0.00 | 52 | 1010.9 |
| 20260509163423 | 53 | 161 | 8.0 | 15.0 | 0.00 | 0.00 | 0.00 | 52 | 1010.9 |
| 20260509163346 | 53 | 148 | 8.0 | 15.0 | 0.00 | 0.00 | 0.00 | 52 | 1010.9 |
| 20260509163308 | 53 | 163 | 8.0 | 15.0 | 0.00 | 0.00 | 0.00 | 52 | 1011.0 |
| 20260509163212 | 53 | 202 | 8.0 | 15.0 | 0.00 | 0.00 | 0.00 | 52 | 1011.0 |
| 20260509163136 | 53 | 227 | 8.0 | 15.0 | 0.00 | 0.00 | 0.00 | 52 | 1011.0 |
| 20260509163007 | 54 | 211 | 9.0 | 15.0 | 0.00 | 0.00 | 0.00 | 52 | 1011.0 |
| 20260509162923 | 54 | 163 | 9.0 | 15.0 | 0.00 | 0.00 | 0.00 | 52 | 1011.0 |
| 20260509162732 | 54 | 167 | 8.0 | 13.0 | 0.00 | 0.00 | 0.00 | 52 | 1011.0 |
| 20260509162647 | 54 | 237 | 9.0 | 13.0 | 0.00 | 0.00 | 0.00 | 52 | 1011.0 |
| 20260509162519 | 54 | 186 | 7.0 | 14.0 | 0.00 | 0.00 | 0.00 | 52 | 1011.0 |
| 20260509162440 | 54 | 163 | 7.0 | 14.0 | 0.00 | 0.00 | 0.00 | 52 | 1011.0 |
| 20260509162312 | 54 | 197 | 9.0 | 16.0 | 0.00 | 0.00 | 0.00 | 51 | 1010.9 |
| 20260509162231 | 54 | 162 | 9.0 | 16.0 | 0.00 | 0.00 | 0.00 | 51 | 1010.9 |
| 20260509162102 | 54 | 176 | 8.0 | 17.0 | 0.00 | 0.00 | 0.00 | 51 | 1010.9 |
| 20260509162005 | 54 | 202 | 9.0 | 17.0 | 0.00 | 0.00 | 0.00 | 51 | 1010.9 |
| 20260509161920 | 54 | 177 | 10.0 | 17.0 | 0.00 | 0.00 | 0.00 | 51 | 1011.0 |
| 20260509161749 | 55 | 200 | 8.0 | 17.0 | 0.00 | 0.00 | 0.00 | 51 | 1011.0 |
| 20260509161643 | 55 | 145 | 9.0 | 17.0 | 0.00 | 0.00 | 0.00 | 51 | 1011.0 |
| 20260509161556 | 55 | 160 | 10.0 | 17.0 | 0.00 | 0.00 | 0.00 | 50 | 1011.0 |
| 20260509161427 | 55 | 194 | 13.0 | 17.0 | 0.00 | 0.00 | 0.00 | 50 | 1011.0 |
| 20260509161326 | 55 | 152 | 12.0 | 17.0 | 0.00 | 0.00 | 0.00 | 50 | 1011.0 |
| 20260509161220 | 55 | 211 | 10.0 | 17.0 | 0.00 | 0.00 | 0.00 | 50 | 1011.0 |
| 20260509161143 | 55 | 147 | 9.0 | 16.0 | 0.00 | 0.00 | 0.00 | 50 | 1011.1 |
| 20260509160931 | 56 | 163 | 10.0 | 16.0 | 0.00 | 0.00 | 0.00 | 51 | 1011.1 |
| 20260509160834 | 56 | 191 | 7.0 | 16.0 | 0.00 | 0.00 | 0.00 | 50 | 1011.1 |
| 20260509160738 | 56 | 171 | 9.0 | 13.0 | 0.00 | 0.00 | 0.00 | 50 | 1011.1 |
| 20260509160640 | 56 | 169 | 8.0 | 13.0 | 0.00 | 0.00 | 0.00 | 51 | 1011.0 |
| 20260509160523 | 56 | 150 | 7.0 | 13.0 | 0.00 | 0.00 | 0.00 | 51 | 1011.1 |
| 20260509160447 | 56 | 159 | 8.0 | 13.0 | 0.00 | 0.00 | 0.00 | 50 | 1011.1 |
| 20260509160323 | 56 | 208 | 9.0 | 15.0 | 0.00 | 0.00 | 0.00 | 50 | 1011.1 |
| 20260509160237 | 56 | 229 | 8.0 | 15.0 | 0.00 | 0.00 | 0.00 | 49 | 1011.1 |
| 20260509160141 | 56 | 257 | 8.0 | 15.0 | 0.00 | 0.00 | 0.00 | 49 | 1011.1 |
| 20260509160012 | 56 | 223 | 8.0 | 15.0 | 0.00 | 0.00 | 0.00 | 50 | 1011.1 |
| 20260509155935 | 56 | 235 | 7.0 | 15.0 | 0.00 | 0.00 | 0.00 | 50 | 1011.1 |
| 20260509155738 | 56 | 154 | 9.0 | 15.0 | 0.00 | 0.00 | 0.00 | 48 | 1011.2 |
| 20260509155701 | 56 | 209 | 10.0 | 15.0 | 0.00 | 0.00 | 0.00 | 48 | 1011.2 |
| 20260509155604 | 56 | 214 | 9.0 | 15.0 | 0.00 | 0.00 | 0.00 | 48 | 1011.2 |
| 20260509155527 | 56 | 188 | 10.0 | 15.0 | 0.00 | 0.00 | 0.00 | 47 | 1011.2 |
| 20260509155331 | 56 | 205 | 9.0 | 15.0 | 0.00 | 0.00 | 0.00 | 47 | 1011.2 |
| 20260509155232 | 56 | 157 | 9.0 | 15.0 | 0.00 | 0.00 | 0.00 | 47 | 1011.1 |
| 20260509155136 | 56 | 168 | 9.0 | 15.0 | 0.00 | 0.00 | 0.00 | 46 | 1011.2 |
| 20260509155040 | 56 | 231 | 8.0 | 16.0 | 0.00 | 0.00 | 0.00 | 47 | 1011.2 |
| 20260509155004 | 56 | 197 | 8.0 | 12.0 | 0.00 | 0.00 | 0.00 | 47 | 1011.2 |
| 20260509154907 | 56 | 202 | 9.0 | 12.0 | 0.00 | 0.00 | 0.00 | 46 | 1011.2 |
| 20260509154829 | 56 | 182 | 9.0 | 11.0 | 0.00 | 0.00 | 0.00 | 46 | 1011.3 |
| 20260509154633 | 56 | 190 | 7.0 | 14.0 | 0.00 | 0.00 | 0.00 | 48 | 1011.2 |
| 20260509154536 | 55 | 175 | 8.0 | 14.0 | 0.00 | 0.00 | 0.00 | 48 | 1011.2 |
| 20260509154439 | 55 | 184 | 6.0 | 14.0 | 0.00 | 0.00 | 0.00 | 48 | 1011.2 |
| 20260509154401 | 55 | 194 | 6.0 | 14.0 | 0.00 | 0.00 | 0.00 | 48 | 1011.2 |
| 20260509154324 | 55 | 220 | 6.0 | 17.0 | 0.00 | 0.00 | 0.00 | 47 | 1011.2 |
| 20260509154130 | 55 | 175 | 8.0 | 17.0 | 0.00 | 0.00 | 0.00 | 46 | 1011.3 |
| 20260509154054 | 55 | 165 | 9.0 | 17.0 | 0.00 | 0.00 | 0.00 | 46 | 1011.3 |
| 20260509153937 | 55 | 151 | 10.0 | 17.0 | 0.00 | 0.00 | 0.00 | 46 | 1011.4 |
| 20260509153901 | 55 | 169 | 9.0 | 17.0 | 0.00 | 0.00 | 0.00 | 46 | 1011.4 |
| 20260509153814 | 55 | 155 | 9.0 | 17.0 | 0.00 | 0.00 | 0.00 | 47 | 1011.3 |
| 20260509153624 | 55 | 122 | 11.0 | 17.0 | 0.00 | 0.00 | 0.00 | 44 | 1011.4 |
| 20260509153549 | 55 | 169 | 11.0 | 17.0 | 0.00 | 0.00 | 0.00 | 44 | 1011.4 |
| 20260509153443 | 55 | 186 | 9.0 | 13.0 | 0.00 | 0.00 | 0.00 | 44 | 1011.4 |
| 20260509153325 | 55 | 165 | 8.0 | 13.0 | 0.00 | 0.00 | 0.00 | 44 | 1011.4 |
| 20260509153252 | 55 | 198 | 8.0 | 13.0 | 0.00 | 0.00 | 0.00 | 44 | 1011.4 |
| 20260509153213 | 55 | 173 | 9.0 | 13.0 | 0.00 | 0.00 | 0.00 | 44 | 1011.5 |
| 20260509153055 | 56 | 227 | 10.0 | 13.0 | 0.00 | 0.00 | 0.00 | 44 | 1011.4 |
| 20260509152958 | 56 | 168 | 9.0 | 13.0 | 0.00 | 0.00 | 0.00 | 44 | 1011.4 |
| 20260509152919 | 56 | 202 | 9.0 | 14.0 | 0.00 | 0.00 | 0.00 | 43 | 1011.3 |
| 20260509152722 | 56 | 203 | 10.0 | 15.0 | 0.00 | 0.00 | 0.00 | 42 | 1011.4 |
| 20260509152646 | 56 | 198 | 9.0 | 15.0 | 0.00 | 0.00 | 0.00 | 41 | 1011.4 |
| 20260509152551 | 56 | 198 | 8.0 | 13.0 | 0.00 | 0.00 | 0.00 | 42 | 1011.4 |
| 20260509152433 | 56 | 234 | 8.0 | 13.0 | 0.00 | 0.00 | 0.00 | 42 | 1011.4 |
| 20260509152336 | 56 | 159 | 6.0 | 13.0 | 0.00 | 0.00 | 0.00 | 43 | 1011.5 |
| 20260509152259 | 56 | 243 | 5.0 | 14.0 | 0.00 | 0.00 | 0.00 | 44 | 1011.5 |
| 20260509152223 | 56 | 183 | 5.0 | 14.0 | 0.00 | 0.00 | 0.00 | 44 | 1011.4 |
| 20260509152027 | 56 | 124 | 7.0 | 14.0 | 0.00 | 0.00 | 0.00 | 42 | 1011.5 |
| 20260509151929 | 56 | 171 | 7.0 | 14.0 | 0.00 | 0.00 | 0.00 | 42 | 1011.5 |
| 20260509151834 | 56 | 219 | 8.0 | 14.0 | 0.00 | 0.00 | 0.00 | 41 | 1011.6 |
| 20260509151735 | 56 | 186 | 8.0 | 14.0 | 0.00 | 0.00 | 0.00 | 41 | 1011.5 |
| 20260509151607 | 56 | 224 | 8.0 | 14.0 | 0.00 | 0.00 | 0.00 | 41 | 1011.5 |
| 20260509151521 | 56 | 192 | 8.0 | 14.0 | 0.00 | 0.00 | 0.00 | 41 | 1011.5 |
| 20260509151333 | 56 | 180 | 8.0 | 13.0 | 0.00 | 0.00 | 0.00 | 41 | 1011.5 |
| 20260509151247 | 56 | 192 | 7.0 | 13.0 | 0.00 | 0.00 | 0.00 | 42 | 1011.5 |
| 20260509151041 | 56 | 164 | 6.0 | 14.0 | 0.00 | 0.00 | 0.00 | 41 | 1011.5 |
| 20260509150937 | 56 | 182 | 7.0 | 13.0 | 0.00 | 0.00 | 0.00 | 41 | 1011.5 |
| 20260509150822 | 56 | 191 | 8.0 | 13.0 | 0.00 | 0.00 | 0.00 | 41 | 1011.5 |
| 20260509150722 | 56 | 130 | 7.0 | 13.0 | 0.00 | 0.00 | 0.00 | 41 | 1011.5 |
| 20260509150647 | 56 | 225 | 8.0 | 13.0 | 0.00 | 0.00 | 0.00 | 41 | 1011.5 |
| 20260509150529 | 56 | 200 | 8.0 | 13.0 | 0.00 | 0.00 | 0.00 | 41 | 1011.4 |
| 20260509150453 | 56 | 184 | 7.0 | 13.0 | 0.00 | 0.00 | 0.00 | 41 | 1011.4 |
| 20260509150409 | 56 | 142 | 7.0 | 13.0 | 0.00 | 0.00 | 0.00 | 41 | 1011.4 |
| 20260509150131 | 56 | 157 | 8.0 | 14.0 | 0.00 | 0.00 | 0.00 | 40 | 1011.4 |
| 20260509150048 | 56 | 179 | 7.0 | 12.0 | 0.00 | 0.00 | 0.00 | 41 | 1011.4 |
| 20260509150021 | 56 | 186 | 6.0 | 11.0 | 0.00 | 0.00 | 0.00 | 40 | 1011.3 |
| 20260509145824 | 57 | 163 | 6.0 | 9.0 | 0.00 | 0.00 | 0.00 | 40 | 1011.3 |
| 20260509145727 | 57 | 209 | 5.0 | 9.0 | 0.00 | 0.00 | 0.00 | 40 | 1011.4 |
| 20260509145631 | 57 | 206 | 4.0 | 9.0 | 0.00 | 0.00 | 0.00 | 41 | 1011.4 |
| 20260509145553 | 57 | 217 | 4.0 | 9.0 | 0.00 | 0.00 | 0.00 | 41 | 1011.4 |
| 20260509145516 | 57 | 211 | 5.0 | 9.0 | 0.00 | 0.00 | 0.00 | 41 | 1011.3 |
| 20260509145340 | 57 | 227 | 4.0 | 9.0 | 0.00 | 0.00 | 0.00 | 41 | 1011.3 |
| 20260509145227 | 57 | 145 | 4.0 | 10.0 | 0.00 | 0.00 | 0.00 | 43 | 1011.3 |
| 20260509145130 | 57 | 111 | 4.0 | 10.0 | 0.00 | 0.00 | 0.00 | 42 | 1011.4 |
| 20260509145054 | 57 | 192 | 4.0 | 10.0 | 0.00 | 0.00 | 0.00 | 42 | 1011.4 |
| 20260509145017 | 57 | 151 | 4.0 | 10.0 | 0.00 | 0.00 | 0.00 | 41 | 1011.4 |
| 20260509144822 | 57 | 226 | 5.0 | 10.0 | 0.00 | 0.00 | 0.00 | 41 | 1011.4 |
| 20260509144627 | 57 | 136 | 6.0 | 10.0 | 0.00 | 0.00 | 0.00 | 41 | 1011.4 |
| 20260509144529 | 57 | 137 | 5.0 | 10.0 | 0.00 | 0.00 | 0.00 | 41 | 1011.4 |
| 20260509144433 | 57 | 146 | 4.0 | 10.0 | 0.00 | 0.00 | 0.00 | 42 | 1011.4 |
| 20260509144356 | 57 | 186 | 4.0 | 10.0 | 0.00 | 0.00 | 0.00 | 41 | 1011.4 |
| 20260509144318 | 57 | 207 | 5.0 | 10.0 | 0.00 | 0.00 | 0.00 | 40 | 1011.4 |
| 20260509144126 | 57 | 168 | 6.0 | 10.0 | 0.00 | 0.00 | 0.00 | 40 | 1011.4 |
| 20260509144029 | 57 | 169 | 6.0 | 11.0 | 0.00 | 0.00 | 0.00 | 42 | 1011.4 |
| 20260509143932 | 57 | 213 | 5.0 | 9.0 | 0.00 | 0.00 | 0.00 | 41 | 1011.4 |
| 20260509143856 | 57 | 178 | 5.0 | 9.0 | 0.00 | 0.00 | 0.00 | 40 | 1011.4 |
| 20260509143818 | 57 | 167 | 6.0 | 9.0 | 0.00 | 0.00 | 0.00 | 40 | 1011.4 |
| 20260509143640 | 57 | 216 | 4.0 | 10.0 | 0.00 | 0.00 | 0.00 | 43 | 1011.4 |
| 20260509143543 | 57 | 152 | 4.0 | 10.0 | 0.00 | 0.00 | 0.00 | 40 | 1011.4 |
| 20260509143447 | 57 | 163 | 4.0 | 10.0 | 0.00 | 0.00 | 0.00 | 43 | 1011.4 |
| 20260509143347 | 56 | 154 | 5.0 | 10.0 | 0.00 | 0.00 | 0.00 | 41 | 1011.5 |
| 20260509143235 | 56 | 129 | 6.0 | 10.0 | 0.00 | 0.00 | 0.00 | 42 | 1011.5 |
| 20260509143138 | 56 | 122 | 5.0 | 10.0 | 0.00 | 0.00 | 0.00 | 43 | 1011.4 |
| 20260509143102 | 56 | 170 | 5.0 | 10.0 | 0.00 | 0.00 | 0.00 | 43 | 1011.4 |
| 20260509143016 | 56 | 144 | 6.0 | 10.0 | 0.00 | 0.00 | 0.00 | 39 | 1011.5 |
| 20260509142828 | 56 | 186 | 6.0 | 10.0 | 0.00 | 0.00 | 0.00 | 41 | 1011.6 |
| 20260509142722 | 56 | 178 | 5.0 | 10.0 | 0.00 | 0.00 | 0.00 | 42 | 1011.6 |
| 20260509142646 | 56 | 184 | 6.0 | 10.0 | 0.00 | 0.00 | 0.00 | 42 | 1011.6 |
| 20260509142549 | 56 | 108 | 6.0 | 10.0 | 0.00 | 0.00 | 0.00 | 42 | 1011.7 |
| 20260509142450 | 56 | 98 | 6.0 | 11.0 | 0.00 | 0.00 | 0.00 | 43 | 1011.7 |
| 20260509142237 | 56 | 173 | 5.0 | 11.0 | 0.00 | 0.00 | 0.00 | 43 | 1011.7 |
| 20260509142138 | 56 | 173 | 5.0 | 11.0 | 0.00 | 0.00 | 0.00 | 45 | 1011.7 |
| 20260509142044 | 56 | 107 | 6.0 | 11.0 | 0.00 | 0.00 | 0.00 | 42 | 1011.7 |
| 20260509142006 | 56 | 223 | 6.0 | 11.0 | 0.00 | 0.00 | 0.00 | 43 | 1011.7 |
| 20260509141813 | 56 | 181 | 7.0 | 11.0 | 0.00 | 0.00 | 0.00 | 43 | 1011.7 |
| 20260509141728 | 55 | 183 | 8.0 | 11.0 | 0.00 | 0.00 | 0.00 | 43 | 1011.8 |
| 20260509141538 | 55 | 163 | 6.0 | 11.0 | 0.00 | 0.00 | 0.00 | 45 | 1011.8 |
| 20260509141502 | 55 | 150 | 5.0 | 11.0 | 0.00 | 0.00 | 0.00 | 45 | 1011.8 |
| 20260509141427 | 55 | 180 | 7.0 | 11.0 | 0.00 | 0.00 | 0.00 | 44 | 1011.8 |
| 20260509141237 | 55 | 153 | 6.0 | 11.0 | 0.00 | 0.00 | 0.00 | 43 | 1011.7 |
| 20260509141136 | 55 | 167 | 4.0 | 13.0 | 0.00 | 0.00 | 0.00 | 44 | 1011.8 |
| 20260509141059 | 55 | 138 | 4.0 | 13.0 | 0.00 | 0.00 | 0.00 | 44 | 1011.8 |
| 20260509141005 | 55 | 182 | 4.0 | 13.0 | 0.00 | 0.00 | 0.00 | 44 | 1011.8 |
| 20260509140928 | 55 | 158 | 5.0 | 13.0 | 0.00 | 0.00 | 0.00 | 46 | 1011.8 |
| 20260509140731 | 55 | 229 | 5.0 | 13.0 | 0.00 | 0.00 | 0.00 | 44 | 1011.8 |
| 20260509140634 | 55 | 138 | 7.0 | 13.0 | 0.00 | 0.00 | 0.00 | 45 | 1011.8 |
| 20260509140537 | 55 | 180 | 8.0 | 13.0 | 0.00 | 0.00 | 0.00 | 46 | 1011.8 |
| 20260509140442 | 55 | 139 | 7.0 | 13.0 | 0.00 | 0.00 | 0.00 | 46 | 1011.8 |
| 20260509140341 | 55 | 126 | 5.0 | 13.0 | 0.00 | 0.00 | 0.00 | 47 | 1011.8 |
| 20260509140222 | 55 | 205 | 5.0 | 15.0 | 0.00 | 0.00 | 0.00 | 45 | 1011.8 |
| 20260509140155 | 54 | 176 | 5.0 | 15.0 | 0.00 | 0.00 | 0.00 | 45 | 1011.8 |
| 20260509140118 | 54 | 198 | 6.0 | 15.0 | 0.00 | 0.00 | 0.00 | 46 | 1011.9 |
| 20260509135922 | 54 | 127 | 7.0 | 15.0 | 0.00 | 0.00 | 0.00 | 45 | 1011.9 |
| 20260509135825 | 54 | 148 | 8.0 | 15.0 | 0.00 | 0.00 | 0.00 | 44 | 1011.9 |
| 20260509135727 | 54 | 212 | 8.0 | 15.0 | 0.00 | 0.00 | 0.00 | 44 | 1011.8 |
| 20260509135649 | 54 | 169 | 9.0 | 15.0 | 0.00 | 0.00 | 0.00 | 44 | 1011.8 |
| 20260509135612 | 54 | 172 | 10.0 | 15.0 | 0.00 | 0.00 | 0.00 | 44 | 1011.8 |
| 20260509135438 | 54 | 126 | 9.0 | 15.0 | 0.00 | 0.00 | 0.00 | 44 | 1011.8 |
| 20260509135402 | 54 | 139 | 7.0 | 14.0 | 0.00 | 0.00 | 0.00 | 44 | 1011.8 |
| 20260509135316 | 54 | 163 | 6.0 | 14.0 | 0.00 | 0.00 | 0.00 | 45 | 1011.8 |
| 20260509135128 | 54 | 175 | 7.0 | 11.0 | 0.00 | 0.00 | 0.00 | 45 | 1011.8 |
| 20260509135043 | 54 | 163 | 7.0 | 12.0 | 0.00 | 0.00 | 0.00 | 46 | 1011.8 |
| 20260509134914 | 54 | 196 | 5.0 | 11.0 | 0.00 | 0.00 | 0.00 | 47 | 1011.8 |
| 20260509134836 | 54 | 211 | 6.0 | 11.0 | 0.00 | 0.00 | 0.00 | 46 | 1011.8 |
| 20260509134708 | 54 | 170 | 8.0 | 11.0 | 0.00 | 0.00 | 0.00 | 46 | 1011.8 |
| 20260509134621 | 54 | 169 | 8.0 | 15.0 | 0.00 | 0.00 | 0.00 | 46 | 1011.8 |
| 20260509134432 | 54 | 115 | 5.0 | 15.0 | 0.00 | 0.00 | 0.00 | 48 | 1011.8 |
| 20260509134330 | 54 | 147 | 6.0 | 15.0 | 0.00 | 0.00 | 0.00 | 47 | 1011.9 |
| 20260509134254 | 54 | 127 | 6.0 | 15.0 | 0.00 | 0.00 | 0.00 | 47 | 1011.9 |
| 20260509134159 | 54 | 132 | 6.0 | 15.0 | 0.00 | 0.00 | 0.00 | 46 | 1011.8 |
| 20260509134041 | 54 | 175 | 8.0 | 15.0 | 0.00 | 0.00 | 0.00 | 47 | 1011.9 |
| 20260509133923 | 54 | 189 | 10.0 | 15.0 | 0.00 | 0.00 | 0.00 | 46 | 1011.9 |
| 20260509133846 | 54 | 162 | 9.0 | 15.0 | 0.00 | 0.00 | 0.00 | 46 | 1012.0 |
| 20260509133629 | 54 | 143 | 7.0 | 11.0 | 0.00 | 0.00 | 0.00 | 47 | 1012.0 |
| 20260509133550 | 54 | 162 | 7.0 | 11.0 | 0.00 | 0.00 | 0.00 | 47 | 1012.0 |
| 20260509133455 | 53 | 178 | 6.0 | 11.0 | 0.00 | 0.00 | 0.00 | 48 | 1011.9 |
| 20260509133417 | 53 | 157 | 6.0 | 9.0 | 0.00 | 0.00 | 0.00 | 48 | 1012.0 |
| 20260509133230 | 53 | 134 | 7.0 | 9.0 | 0.00 | 0.00 | 0.00 | 47 | 1012.0 |
| 20260509133133 | 53 | 150 | 8.0 | 9.0 | 0.00 | 0.00 | 0.00 | 46 | 1012.0 |
| 20260509132935 | 53 | 167 | 5.0 | 11.0 | 0.00 | 0.00 | 0.00 | 48 | 1012.0 |
| 20260509132859 | 53 | 156 | 5.0 | 10.0 | 0.00 | 0.00 | 0.00 | 46 | 1012.0 |
| 20260509132724 | 53 | 194 | 6.0 | 10.0 | 0.00 | 0.00 | 0.00 | 46 | 1012.0 |
| 20260509132618 | 53 | 121 | 6.0 | 10.0 | 0.00 | 0.00 | 0.00 | 46 | 1012.0 |
| 20260509132552 | 53 | 189 | 6.0 | 10.0 | 0.00 | 0.00 | 0.00 | 46 | 1012.0 |
| 20260509132435 | 53 | 158 | 6.0 | 10.0 | 0.00 | 0.00 | 0.00 | 46 | 1012.0 |
| 20260509132402 | 53 | 134 | 6.0 | 10.0 | 0.00 | 0.00 | 0.00 | 46 | 1012.0 |
| 20260509132317 | 53 | 209 | 5.0 | 11.0 | 0.00 | 0.00 | 0.00 | 46 | 1011.9 |
| 20260509132128 | 53 | 136 | 4.0 | 16.0 | 0.00 | 0.00 | 0.00 | 49 | 1011.9 |
| 20260509132043 | 53 | 140 | 7.0 | 16.0 | 0.00 | 0.00 | 0.00 | 47 | 1011.9 |
| 20260509131853 | 53 | 213 | 5.0 | 16.0 | 0.00 | 0.00 | 0.00 | 48 | 1011.9 |
| 20260509131734 | 53 | 111 | 5.0 | 16.0 | 0.00 | 0.00 | 0.00 | 47 | 1011.9 |
| 20260509131636 | 53 | 163 | 7.0 | 16.0 | 0.00 | 0.00 | 0.00 | 47 | 1011.9 |
| 20260509131600 | 53 | 122 | 9.0 | 16.0 | 0.00 | 0.00 | 0.00 | 47 | 1011.9 |
| 20260509131521 | 53 | 158 | 9.0 | 16.0 | 0.00 | 0.00 | 0.00 | 46 | 1012.0 |
| 20260509131404 | 53 | 169 | 6.0 | 13.0 | 0.00 | 0.00 | 0.00 | 47 | 1012.0 |
| 20260509131327 | 53 | 158 | 4.0 | 10.0 | 0.00 | 0.00 | 0.00 | 48 | 1012.1 |
| 20260509131135 | 53 | 143 | 4.0 | 10.0 | 0.00 | 0.00 | 0.00 | 49 | 1012.1 |
| 20260509131038 | 52 | 159 | 6.0 | 10.0 | 0.00 | 0.00 | 0.00 | 48 | 1012.1 |
| 20260509130921 | 52 | 135 | 7.0 | 10.0 | 0.00 | 0.00 | 0.00 | 48 | 1012.0 |
| 20260509130855 | 52 | 154 | 5.0 | 9.0 | 0.00 | 0.00 | 0.00 | 49 | 1012.0 |
| 20260509130811 | 52 | 177 | 3.0 | 8.0 | 0.00 | 0.00 | 0.00 | 50 | 1012.1 |
| 20260509130641 | 52 | 126 | 5.0 | 8.0 | 0.00 | 0.00 | 0.00 | 49 | 1012.1 |
| 20260509130543 | 52 | 182 | 4.0 | 10.0 | 0.00 | 0.00 | 0.00 | 49 | 1012.1 |
| 20260509130414 | 52 | 112 | 5.0 | 8.0 | 0.00 | 0.00 | 0.00 | 49 | 1012.1 |
| 20260509130328 | 52 | 125 | 5.0 | 8.0 | 0.00 | 0.00 | 0.00 | 49 | 1012.1 |
| 20260509130141 | 52 | 124 | 5.0 | 8.0 | 0.00 | 0.00 | 0.00 | 48 | 1012.2 |
| 20260509130055 | 51 | 171 | 5.0 | 7.0 | 0.00 | 0.00 | 0.00 | 48 | 1012.2 |
| 20260509125926 | 51 | 139 | 5.0 | 11.0 | 0.00 | 0.00 | 0.00 | 48 | 1012.2 |
| 20260509125827 | 51 | 173 | 4.0 | 11.0 | 0.00 | 0.00 | 0.00 | 48 | 1012.2 |
| 20260509125632 | 51 | 158 | 4.0 | 11.0 | 0.00 | 0.00 | 0.00 | 49 | 1012.2 |
| 20260509125527 | 51 | 130 | 5.0 | 11.0 | 0.00 | 0.00 | 0.00 | 48 | 1012.2 |
| 20260509125448 | 51 | 176 | 5.0 | 11.0 | 0.00 | 0.00 | 0.00 | 49 | 1012.2 |
| 20260509125351 | 51 | 171 | 5.0 | 11.0 | 0.00 | 0.00 | 0.00 | 49 | 1012.2 |
| 20260509125256 | 51 | 145 | 6.0 | 11.0 | 0.00 | 0.00 | 0.00 | 49 | 1012.2 |
| 20260509125218 | 51 | 150 | 6.0 | 11.0 | 0.00 | 0.00 | 0.00 | 48 | 1012.2 |
| 20260509125140 | 51 | 173 | 6.0 | 11.0 | 0.00 | 0.00 | 0.00 | 49 | 1012.2 |
| 20260509124927 | 51 | 114 | 4.0 | 9.0 | 0.00 | 0.00 | 0.00 | 49 | 1012.2 |
| 20260509124829 | 51 | 133 | 6.0 | 9.0 | 0.00 | 0.00 | 0.00 | 49 | 1012.2 |
| 20260509124734 | 51 | 122 | 6.0 | 9.0 | 0.00 | 0.00 | 0.00 | 49 | 1012.2 |
| 20260509124655 | 51 | 148 | 5.0 | 10.0 | 0.00 | 0.00 | 0.00 | 49 | 1012.2 |
| 20260509124527 | 51 | 134 | 5.0 | 10.0 | 0.00 | 0.00 | 0.00 | 50 | 1012.3 |
| 20260509124421 | 51 | 136 | 5.0 | 10.0 | 0.00 | 0.00 | 0.00 | 49 | 1012.3 |
| 20260509124250 | 51 | 142 | 5.0 | 10.0 | 0.00 | 0.00 | 0.00 | 49 | 1012.3 |
| 20260509124153 | 51 | 169 | 5.0 | 10.0 | 0.00 | 0.00 | 0.00 | 49 | 1012.3 |
| 20260509124036 | 51 | 158 | 6.0 | 10.0 | 0.00 | 0.00 | 0.00 | 49 | 1012.3 |
| 20260509123943 | 51 | 148 | 6.0 | 10.0 | 0.00 | 0.00 | 0.00 | 49 | 1012.3 |
| 20260509123836 | 51 | 140 | 6.0 | 11.0 | 0.00 | 0.00 | 0.00 | 49 | 1012.3 |
| 20260509123800 | 50 | 133 | 6.0 | 12.0 | 0.00 | 0.00 | 0.00 | 49 | 1012.3 |
| 20260509123704 | 50 | 123 | 6.0 | 12.0 | 0.00 | 0.00 | 0.00 | 49 | 1012.4 |
| 20260509123626 | 50 | 183 | 7.0 | 12.0 | 0.00 | 0.00 | 0.00 | 49 | 1012.3 |
| 20260509123429 | 50 | 142 | 5.0 | 12.0 | 0.00 | 0.00 | 0.00 | 49 | 1012.4 |
| 20260509123342 | 50 | 150 | 4.0 | 12.0 | 0.00 | 0.00 | 0.00 | 49 | 1012.4 |
| 20260509123224 | 50 | 153 | 5.0 | 12.0 | 0.00 | 0.00 | 0.00 | 48 | 1012.4 |
| 20260509123148 | 50 | 153 | 6.0 | 12.0 | 0.00 | 0.00 | 0.00 | 48 | 1012.4 |
| 20260509123033 | 50 | 189 | 6.0 | 12.0 | 0.00 | 0.00 | 0.00 | 48 | 1012.4 |
| 20260509122956 | 50 | 163 | 6.0 | 13.0 | 0.00 | 0.00 | 0.00 | 48 | 1012.4 |
| 20260509122918 | 50 | 117 | 6.0 | 12.0 | 0.00 | 0.00 | 0.00 | 48 | 1012.4 |
| 20260509122721 | 50 | 167 | 6.0 | 12.0 | 0.00 | 0.00 | 0.00 | 47 | 1012.5 |
| 20260509122635 | 50 | 140 | 6.0 | 12.0 | 0.00 | 0.00 | 0.00 | 47 | 1012.5 |
| 20260509122537 | 50 | 126 | 6.0 | 12.0 | 0.00 | 0.00 | 0.00 | 46 | 1012.5 |
| 20260509122500 | 50 | 149 | 4.0 | 9.0 | 0.00 | 0.00 | 0.00 | 46 | 1012.5 |
| 20260509122423 | 50 | 129 | 4.0 | 9.0 | 0.00 | 0.00 | 0.00 | 45 | 1012.5 |
| 20260509122225 | 49 | 146 | 5.0 | 9.0 | 0.00 | 0.00 | 0.00 | 43 | 1012.5 |
| 20260509122149 | 49 | 135 | 5.0 | 8.0 | 0.00 | 0.00 | 0.00 | 43 | 1012.5 |
| 20260509122058 | 49 | 147 | 4.0 | 8.0 | 0.00 | 0.00 | 0.00 | 43 | 1012.5 |
| 20260509122020 | 49 | 172 | 4.0 | 8.0 | 0.00 | 0.00 | 0.00 | 42 | 1012.5 |
| 20260509121825 | 49 | 161 | 4.0 | 8.0 | 0.00 | 0.00 | 0.00 | 39 | 1012.5 |
| 20260509121727 | 49 | 185 | 4.0 | 8.0 | 0.00 | 0.00 | 0.00 | 40 | 1012.5 |
| 20260509121630 | 49 | 193 | 4.0 | 8.0 | 0.00 | 0.00 | 0.00 | 38 | 1012.5 |
| 20260509121552 | 49 | 114 | 3.0 | 8.0 | 0.00 | 0.00 | 0.00 | 37 | 1012.5 |
| 20260509121515 | 48 | 153 | 3.0 | 8.0 | 0.00 | 0.00 | 0.00 | 38 | 1012.6 |
| 20260509121330 | 48 | 140 | 2.0 | 8.0 | 0.00 | 0.00 | 0.00 | 37 | 1012.6 |
| 20260509121231 | 48 | 154 | 3.0 | 8.0 | 0.00 | 0.00 | 0.00 | 35 | 1012.5 |
| 20260509121150 | 48 | 146 | 4.0 | 8.0 | 0.00 | 0.00 | 0.00 | 35 | 1012.6 |
| 20260509121050 | 48 | 149 | 5.0 | 8.0 | 0.00 | 0.00 | 0.00 | 34 | 1012.6 |
| 20260509120922 | 47 | 178 | 5.0 | 9.0 | 0.00 | 0.00 | 0.00 | 30 | 1012.6 |
| 20260509120817 | 47 | 167 | 5.0 | 8.0 | 0.00 | 0.00 | 0.00 | 28 | 1012.6 |
| 20260509120647 | 47 | 178 | 3.0 | 7.0 | 0.00 | 0.00 | 0.00 | 19 | 1012.6 |
| 20260509120547 | 47 | 139 | 4.0 | 7.0 | 0.00 | 0.00 | 0.00 | 16 | 1012.6 |
| 20260509120427 | 47 | 123 | 3.0 | 7.0 | 0.00 | 0.00 | 0.00 | 2 | 1012.6 |
| 20260509120349 | 46 | 153 | 3.0 | 6.0 | 0.00 | 0.00 | 0.00 | 2 | 1012.6 |
| 20260509120219 | 46 | 150 | 2.0 | 6.0 | 0.00 | 0.00 | 0.00 | 1 | 1012.6 |
| 20260509120134 | 46 | 139 | 1.0 | 6.0 | 0.00 | 0.00 | 0.00 | 1 | 1012.6 |
| 20260509120004 | 46 | 162 | 3.0 | 6.0 | 0.00 | 0.00 | 0.00 | 1 | 1012.6 |
| 20260509115926 | 46 | 162 | 3.0 | 6.0 | 0.00 | 0.00 | 0.00 | 1 | 1012.6 |
| 20260509115731 | 45 | 155 | 3.0 | 6.0 | 0.00 | 0.00 | 0.00 | 1 | 1012.6 |
| 20260509115655 | 45 | 144 | 3.0 | 6.0 | 0.00 | 0.00 | 0.00 | 1 | 1012.6 |
| 20260509115539 | 45 | 155 | 1.0 | 4.0 | 0.00 | 0.00 | 0.00 | 1 | 1012.6 |
| 20260509115502 | 45 | 164 | 1.0 | 4.0 | 0.00 | 0.00 | 0.00 | 1 | 1012.6 |
| 20260509115324 | 45 | 137 | 1.0 | 4.0 | 0.00 | 0.00 | 0.00 | 1 | 1012.6 |
| 20260509115247 | 44 | 137 | 2.0 | 4.0 | 0.00 | 0.00 | 0.00 | 1 | 1012.6 |
| 20260509115122 | 44 | 204 | 2.0 | 4.0 | 0.00 | 0.00 | 0.00 | 1 | 1012.6 |
| 20260509115027 | 44 | 183 | 1.0 | 4.0 | 0.00 | 0.00 | 0.00 | 1 | 1012.6 |
| 20260509114932 | 44 | 183 | 1.0 | 4.0 | 0.00 | 0.00 | 0.00 | 1 | 1012.6 |
| 20260509114856 | 43 | 119 | 1.0 | 4.0 | 0.00 | 0.00 | 0.00 | 1 | 1012.6 |
| 20260509114740 | 43 | 148 | 1.0 | 4.0 | 0.00 | 0.00 | 0.00 | 1 | 1012.7 |
| 20260509114702 | 43 | 119 | 2.0 | 4.0 | 0.00 | 0.00 | 0.00 | 1 | 1012.7 |
| 20260509114525 | 43 | 173 | 1.0 | 4.0 | 0.00 | 0.00 | 0.00 | 1 | 1012.7 |
| 20260509114448 | 42 | 132 | 1.0 | 4.0 | 0.00 | 0.00 | 0.00 | 1 | 1012.7 |
| 20260509114330 | 42 | 329 | 0.0 | 2.0 | 0.00 | 0.00 | 0.00 | 1 | 1012.7 |
| 20260509114233 | 42 | 137 | 0.0 | 2.0 | 0.00 | 0.00 | 0.00 | 1 | 1012.7 |
| 20260509114157 | 42 | 137 | 1.0 | 2.0 | 0.00 | 0.00 | 0.00 | 1 | 1012.6 |
| 20260509114010 | 41 | 137 | 1.0 | 2.0 | 0.00 | 0.00 | 0.00 | 1 | 1012.7 |
| 20260509113933 | 41 | 137 | 1.0 | 2.0 | 0.00 | 0.00 | 0.00 | 1 | 1012.6 |
| 20260509113805 | 41 | 42 | 1.0 | 2.0 | 0.00 | 0.00 | 0.00 | 1 | 1012.6 |
| 20260509113640 | 41 | 69 | 1.0 | 2.0 | 0.00 | 0.00 | 0.00 | 1 | 1012.6 |
| 20260509113524 | 40 | 169 | 0.0 | 2.0 | 0.00 | 0.00 | 0.00 | 1 | 1012.6 |
| 20260509113446 | 40 | 169 | 1.0 | 2.0 | 0.00 | 0.00 | 0.00 | 1 | 1012.6 |
| 20260509113318 | 40 | 178 | 1.0 | 2.0 | 0.00 | 0.00 | 0.00 | 1 | 1012.6 |
| 20260509113234 | 40 | 178 | 0.0 | 2.0 | 0.00 | 0.00 | 0.00 | 1 | 1012.6 |
| 20260509113104 | 40 | 298 | 0.0 | 1.0 | 0.00 | 0.00 | 0.00 | 1 | 1012.7 |
| 20260509113026 | 40 | 165 | 0.0 | 1.0 | 0.00 | 0.00 | 0.00 | 1 | 1012.6 |
| 20260509112833 | 39 | 165 | 1.0 | 2.0 | 0.00 | 0.00 | 0.00 | 1 | 1012.7 |
| 20260509112755 | 39 | 165 | 0.0 | 2.0 | 0.00 | 0.00 | 0.00 | 1 | 1012.7 |
| 20260509112657 | 39 | 194 | 0.0 | 2.0 | 0.00 | 0.00 | 0.00 | 1 | 1012.7 |
| 20260509112600 | 39 | 80 | 0.0 | 2.0 | 0.00 | 0.00 | 0.00 | 1 | 1012.7 |
| 20260509112522 | 39 | 79 | 0.0 | 2.0 | 0.00 | 0.00 | 0.00 | 1 | 1012.7 |
| 20260509112353 | 38 | 107 | 0.0 | 2.0 | 0.00 | 0.00 | 0.00 | 1 | 1012.6 |
| 20260509112225 | 38 | 190 | 0.0 | 2.0 | 0.00 | 0.00 | 0.00 | 1 | 1012.7 |
| 20260509112149 | 38 | 190 | 0.0 | 2.0 | 0.00 | 0.00 | 0.00 | 1 | 1012.7 |
| 20260509112104 | 38 | 5 | 0.0 | 1.0 | 0.00 | 0.00 | 0.00 | 1 | 1012.7 |
| 20260509112006 | 38 | 360 | 0.0 | 1.0 | 0.00 | 0.00 | 0.00 | 1 | 1012.7 |
| 20260509111929 | 38 | 360 | 0.0 | 1.0 | 0.00 | 0.00 | 0.00 | 1 | 1012.6 |
| 20260509111804 | 38 | 142 | 0.0 | 1.0 | 0.00 | 0.00 | 0.00 | 1 | 1012.7 |
| 20260509111727 | 38 | 142 | 0.0 | 1.0 | 0.00 | 0.00 | 0.00 | 1 | 1012.7 |
| 20260509111539 | 37 | 334 | 0.0 | 0.0 | 0.00 | 0.00 | 0.00 | 1 | 1012.7 |
| 20260509111433 | 37 | 282 | 0.0 | 0.0 | 0.00 | 0.00 | 0.00 | 1 | 1012.7 |
| 20260509111357 | 37 | 282 | 0.0 | 0.0 | 0.00 | 0.00 | 0.00 | 1 | 1012.7 |
| 20260509111237 | 37 | 283 | 0.0 | 1.0 | 0.00 | 0.00 | 0.00 | 1 | 1012.7 |
| 20260509111132 | 37 | 283 | 0.0 | 1.0 | 0.00 | 0.00 | 0.00 | 1 | 1012.6 |
| 20260509111052 | 37 | 281 | 0.0 | 1.0 | 0.00 | 0.00 | 0.00 | 1 | 1012.7 |
| 20260509110955 | 37 | 57 | 0.0 | 1.0 | 0.00 | 0.00 | 0.00 | 1 | 1012.7 |
| 20260509110910 | 36 | 80 | 0.0 | 1.0 | 0.00 | 0.00 | 0.00 | 1 | 1012.6 |
| 20260509110723 | 36 | 13 | 0.0 | 1.0 | 0.00 | 0.00 | 0.00 | 1 | 1012.6 |
| 20260509110624 | 36 | 348 | 0.0 | 1.0 | 0.00 | 0.00 | 0.00 | 1 | 1012.6 |
| 20260509110426 | 35 | 337 | 0.0 | 0.0 | 0.00 | 0.00 | 0.00 | 1 | 1012.6 |
| 20260509110350 | 35 | 333 | 0.0 | 0.0 | 0.00 | 0.00 | 0.00 | 1 | 1012.6 |
| 20260509110254 | 35 | 331 | 0.0 | 1.0 | 0.00 | 0.00 | 0.00 | 1 | 1012.6 |
| 20260509110137 | 35 | 330 | 0.0 | 1.0 | 0.00 | 0.00 | 0.00 | 1 | 1012.6 |
| 20260509110031 | 35 | 329 | 0.0 | 1.0 | 0.00 | 0.00 | 0.00 | 1 | 1012.6 |
| 20260509105953 | 34 | 159 | 0.0 | 1.0 | 0.00 | 0.00 | 0.00 | 1 | 1012.6 |
| 20260509105916 | 34 | 159 | 0.0 | 1.0 | 0.00 | 0.00 | 0.00 | 1 | 1012.6 |
| 20260509105744 | 34 | 291 | 0.0 | 1.0 | 0.00 | 0.00 | 0.00 | 1 | 1012.6 |
| 20260509105706 | 34 | 104 | 0.0 | 1.0 | 0.00 | 0.00 | 0.00 | 1 | 1012.6 |
| 20260509105540 | 34 | 89 | 0.0 | 1.0 | 0.00 | 0.00 | 0.00 | 1 | 1012.6 |
| 20260509105504 | 34 | 89 | 0.0 | 1.0 | 0.00 | 0.00 | 0.00 | 1 | 1012.6 |
| 20260509105418 | 34 | 91 | 0.0 | 1.0 | 0.00 | 0.00 | 0.00 | 1 | 1012.6 |
| 20260509105229 | 34 | 28 | 0.0 | 1.0 | 0.00 | 0.00 | 0.00 | 1 | 1012.6 |
| 20260509105123 | 33 | 355 | 0.0 | 1.0 | 0.00 | 0.00 | 0.00 | 1 | 1012.6 |
| 20260509105045 | 33 | 192 | 0.0 | 1.0 | 0.00 | 0.00 | 0.00 | 1 | 1012.6 |
| 20260509104925 | 33 | 187 | 0.0 | 1.0 | 0.00 | 0.00 | 0.00 | 1 | 1012.6 |
| 20260509104839 | 33 | 140 | 0.0 | 1.0 | 0.00 | 0.00 | 0.00 | 1 | 1012.5 |
| 20260509104710 | 33 | 225 | 0.0 | 1.0 | 0.00 | 0.00 | 0.00 | 1 | 1012.6 |
| 20260509104632 | 33 | 225 | 0.0 | 1.0 | 0.00 | 0.00 | 0.00 | 1 | 1012.6 |
| 20260509104434 | 32 | 105 | 0.0 | 1.0 | 0.00 | 0.00 | 0.00 | 1 | 1012.6 |
| 20260509104336 | 32 | 109 | 0.0 | 1.0 | 0.00 | 0.00 | 0.00 | 1 | 1012.6 |
| 20260509104231 | 32 | 110 | 0.0 | 1.0 | 0.00 | 0.00 | 0.00 | 1 | 1012.6 |
| 20260509104204 | 32 | 120 | 0.0 | 1.0 | 0.00 | 0.00 | 0.00 | 1 | 1012.5 |
| 20260509104048 | 32 | 105 | 0.0 | 1.0 | 0.00 | 0.00 | 0.00 | 1 | 1012.5 |
| 20260509103949 | 32 | 105 | 0.0 | 1.0 | 0.00 | 0.00 | 0.00 | 1 | 1012.5 |
| 20260509103854 | 32 | 105 | 0.0 | 1.0 | 0.00 | 0.00 | 0.00 | 1 | 1012.5 |
| 20260509103800 | 31 | 114 | 0.0 | 1.0 | 0.00 | 0.00 | 0.00 | 1 | 1012.6 |
| 20260509103609 | 31 | 135 | 0.0 | 2.0 | 0.00 | 0.00 | 0.00 | 1 | 1012.6 |
| 20260509103531 | 31 | 135 | 0.0 | 2.0 | 0.00 | 0.00 | 0.00 | 1 | 1012.5 |
| 20260509103335 | 31 | 135 | 0.0 | 2.0 | 0.00 | 0.00 | 0.00 | 1 | 1012.5 |
| 20260509103256 | 31 | 140 | 0.0 | 2.0 | 0.00 | 0.00 | 0.00 | 1 | 1012.4 |
| 20260509103129 | 31 | 175 | 0.0 | 2.0 | 0.00 | 0.00 | 0.00 | 1 | 1012.5 |
| 20260509103051 | 30 | 175 | 0.0 | 2.0 | 0.00 | 0.00 | 0.00 | 1 | 1012.5 |
| 20260509102934 | 30 | 173 | 0.0 | 2.0 | 0.00 | 0.00 | 0.00 | 1 | 1012.5 |
| 20260509102858 | 30 | 173 | 0.0 | 2.0 | 0.00 | 0.00 | 0.00 | 1 | 1012.5 |
| 20260509102825 | 30 | 173 | 1.0 | 2.0 | 0.00 | 0.00 | 0.00 | 1 | 1012.5 |
| 20260509102628 | 30 | 173 | 0.0 | 1.0 | 0.00 | 0.00 | 0.00 | 1 | 1012.4 |
| 20260509102552 | 30 | 173 | 0.0 | 1.0 | 0.00 | 0.00 | 0.00 | 1 | 1012.4 |
| 20260509102455 | 30 | 173 | 0.0 | 1.0 | 0.00 | 0.00 | 0.00 | 1 | 1012.4 |
| 20260509102356 | 30 | 173 | 0.0 | 1.0 | 0.00 | 0.00 | 0.00 | 1 | 1012.4 |
| 20260509102320 | 30 | 153 | 0.0 | 1.0 | 0.00 | 0.00 | 0.00 | 1 | 1012.4 |
| 20260509102213 | 30 | 153 | 0.0 | 1.0 | 0.00 | 0.00 | 0.00 | 1 | 1012.3 |
| 20260509102136 | 30 | 40 | 0.0 | 0.0 | 0.00 | 0.00 | 0.00 | 1 | 1012.3 |
| 20260509101944 | 30 | 40 | 0.0 | 0.0 | 0.00 | 0.00 | 0.00 | 1 | 1012.4 |
| 20260509101848 | 30 | 40 | 0.0 | 0.0 | 0.00 | 0.00 | 0.00 | 1 | 1012.4 |
| 20260509101725 | 29 | 40 | 0.0 | 0.0 | 0.00 | 0.00 | 0.00 | 1 | 1012.4 |
| 20260509101628 | 29 | 40 | 0.0 | 0.0 | 0.00 | 0.00 | 0.00 | 1 | 1012.4 |
| 20260509101549 | 29 | 40 | 0.0 | 0.0 | 0.00 | 0.00 | 0.00 | 1 | 1012.4 |
| 20260509101421 | 29 | 40 | 0.0 | 0.0 | 0.00 | 0.00 | 0.00 | 1 | 1012.4 |
| 20260509101336 | 29 | 40 | 0.0 | 0.0 | 0.00 | 0.00 | 0.00 | 1 | 1012.4 |
| 20260509101205 | 29 | 40 | 0.0 | 0.0 | 0.00 | 0.00 | 0.00 | 1 | 1012.3 |
| 20260509101127 | 29 | 40 | 0.0 | 0.0 | 0.00 | 0.00 | 0.00 | 1 | 1012.4 |
| 20260509100931 | 29 | 40 | 0.0 | 1.0 | 0.00 | 0.00 | 0.00 | 1 | 1012.4 |
| 20260509100852 | 29 | 321 | 0.0 | 1.0 | 0.00 | 0.00 | 0.00 | 1 | 1012.4 |
| 20260509100736 | 29 | 321 | 0.0 | 1.0 | 0.00 | 0.00 | 0.00 | 1 | 1012.3 |
| 20260509100658 | 29 | 319 | 0.0 | 1.0 | 0.00 | 0.00 | 0.00 | 1 | 1012.3 |
| 20260509100526 | 29 | 35 | 0.0 | 1.0 | 0.00 | 0.00 | 0.00 | 1 | 1012.3 |
| 20260509100449 | 29 | 36 | 0.0 | 1.0 | 0.00 | 0.00 | 0.00 | 1 | 1012.3 |
| 20260509100313 | 29 | 42 | 0.0 | 1.0 | 0.00 | 0.00 | 0.00 | 1 | 1012.3 |
| 20260509100244 | 29 | 5 | 0.0 | 1.0 | 0.00 | 0.00 | 0.00 | 1 | 1012.4 |
| 20260509100029 | 30 | 336 | 0.0 | 0.0 | 0.00 | 0.00 | 0.00 | 1 | 1012.4 |
| 20260509095932 | 30 | 5 | 0.0 | 1.0 | 0.00 | 0.00 | 0.00 | 1 | 1012.4 |
| 20260509095836 | 30 | 5 | 0.0 | 1.0 | 0.00 | 0.00 | 0.00 | 1 | 1012.4 |
| 20260509095758 | 30 | 5 | 0.0 | 1.0 | 0.00 | 0.00 | 0.00 | 1 | 1012.4 |
| 20260509095609 | 30 | 355 | 0.0 | 1.0 | 0.00 | 0.00 | 0.00 | 1 | 1012.4 |
| 20260509095528 | 30 | 355 | 0.0 | 1.0 | 0.00 | 0.00 | 0.00 | 1 | 1012.3 |
| 20260509095337 | 30 | 355 | 0.0 | 1.0 | 0.00 | 0.00 | 0.00 | 1 | 1012.3 |
| 20260509095233 | 30 | 355 | 0.0 | 1.0 | 0.00 | 0.00 | 0.00 | 1 | 1012.3 |
| 20260509095129 | 30 | 355 | 0.0 | 1.0 | 0.00 | 0.00 | 0.00 | 1 | 1012.3 |
| 20260509095030 | 30 | 5 | 0.0 | 0.0 | 0.00 | 0.00 | 0.00 | 1 | 1012.3 |
| 20260509094955 | 30 | 15 | 0.0 | 0.0 | 0.00 | 0.00 | 0.00 | 1 | 1012.3 |
| 20260509094837 | 30 | 325 | 0.0 | 0.0 | 0.00 | 0.00 | 0.00 | 1 | 1012.3 |
| 20260509094801 | 30 | 325 | 0.0 | 0.0 | 0.00 | 0.00 | 0.00 | 1 | 1012.3 |
| 20260509094728 | 30 | 325 | 0.0 | 0.0 | 0.00 | 0.00 | 0.00 | 1 | 1012.3 |
| 20260509094559 | 30 | 325 | 0.0 | 0.0 | 0.00 | 0.00 | 0.00 | 1 | 1012.3 |
| 20260509094501 | 30 | 325 | 0.0 | 0.0 | 0.00 | 0.00 | 0.00 | 1 | 1012.3 |
| 20260509094416 | 30 | 325 | 0.0 | 0.0 | 0.00 | 0.00 | 0.00 | 1 | 1012.3 |
| 20260509094228 | 30 | 259 | 0.0 | 0.0 | 0.00 | 0.00 | 0.00 | 1 | 1012.3 |
| 20260509094123 | 30 | 242 | 0.0 | 0.0 | 0.00 | 0.00 | 0.00 | 1 | 1012.3 |
| 20260509094018 | 30 | 242 | 0.0 | 0.0 | 0.00 | 0.00 | 0.00 | 1 | 1012.2 |
| 20260509093952 | 30 | 18 | 0.0 | 0.0 | 0.00 | 0.00 | 0.00 | 1 | 1012.2 |
| 20260509093914 | 30 | 100 | 0.0 | 0.0 | 0.00 | 0.00 | 0.00 | 1 | 1012.2 |
| 20260509093736 | 30 | 100 | 0.0 | 0.0 | 0.00 | 0.00 | 0.00 | 1 | 1012.2 |
| 20260509093644 | 30 | 100 | 0.0 | 0.0 | 0.00 | 0.00 | 0.00 | 1 | 1012.2 |
| 20260509093529 | 30 | 100 | 0.0 | 0.0 | 0.00 | 0.00 | 0.00 | 1 | 1012.1 |
| 20260509093452 | 30 | 100 | 0.0 | 0.0 | 0.00 | 0.00 | 0.00 | 1 | 1012.1 |
| 20260509093210 | 30 | 100 | 0.0 | 0.0 | 0.00 | 0.00 | 0.00 | 1 | 1012.1 |
| 20260509093024 | 30 | 100 | 0.0 | 0.0 | 0.00 | 0.00 | 0.00 | 1 | 1012.1 |
| 20260509092928 | 30 | 100 | 0.0 | 0.0 | 0.00 | 0.00 | 0.00 | 1 | 1012.1 |
| 20260509092852 | 30 | 100 | 0.0 | 0.0 | 0.00 | 0.00 | 0.00 | 1 | 1012.1 |
| 20260509092814 | 30 | 100 | 0.0 | 0.0 | 0.00 | 0.00 | 0.00 | 1 | 1012.1 |
| 20260509092656 | 30 | 100 | 0.0 | 0.0 | 0.00 | 0.00 | 0.00 | 1 | 1012.1 |
| 20260509092543 | 30 | 100 | 0.0 | 0.0 | 0.00 | 0.00 | 0.00 | 1 | 1012.1 |
| 20260509092446 | 30 | 100 | 0.0 | 0.0 | 0.00 | 0.00 | 0.00 | 1 | 1012.0 |
| 20260509092328 | 30 | 100 | 0.0 | 0.0 | 0.00 | 0.00 | 0.00 | 1 | 1012.0 |
| 20260509092232 | 30 | 100 | 0.0 | 0.0 | 0.00 | 0.00 | 0.00 | 1 | 1012.0 |
| 20260509092134 | 30 | 100 | 0.0 | 0.0 | 0.00 | 0.00 | 0.00 | 1 | 1012.0 |
| 20260509091915 | 30 | 100 | 0.0 | 0.0 | 0.00 | 0.00 | 0.00 | 1 | 1012.0 |
| 20260509091846 | 30 | 100 | 0.0 | 0.0 | 0.00 | 0.00 | 0.00 | 1 | 1012.0 |
| 20260509091724 | 30 | 100 | 0.0 | 0.0 | 0.00 | 0.00 | 0.00 | 1 | 1012.0 |
| 20260509091647 | 30 | 100 | 0.0 | 0.0 | 0.00 | 0.00 | 0.00 | 1 | 1012.0 |
| 20260509091522 | 30 | 100 | 0.0 | 0.0 | 0.00 | 0.00 | 0.00 | 1 | 1012.0 |
| 20260509091425 | 30 | 100 | 0.0 | 0.0 | 0.00 | 0.00 | 0.00 | 1 | 1012.0 |
| 20260509091348 | 30 | 100 | 0.0 | 0.0 | 0.00 | 0.00 | 0.00 | 1 | 1012.0 |
| 20260509091311 | 30 | 100 | 0.0 | 0.0 | 0.00 | 0.00 | 0.00 | 1 | 1011.9 |
| 20260509091133 | 30 | 100 | 0.0 | 0.0 | 0.00 | 0.00 | 0.00 | 1 | 1012.0 |
| 20260509091057 | 30 | 100 | 0.0 | 0.0 | 0.00 | 0.00 | 0.00 | 1 | 1012.0 |
| 20260509091012 | 30 | 100 | 0.0 | 0.0 | 0.00 | 0.00 | 0.00 | 1 | 1012.0 |
| 20260509090842 | 30 | 100 | 0.0 | 0.0 | 0.00 | 0.00 | 0.00 | 1 | 1012.0 |
| 20260509090746 | 30 | 100 | 0.0 | 0.0 | 0.00 | 0.00 | 0.00 | 1 | 1012.0 |
| 20260509090611 | 30 | 100 | 0.0 | 0.0 | 0.00 | 0.00 | 0.00 | 1 | 1012.0 |
| 20260509090533 | 30 | 100 | 0.0 | 0.0 | 0.00 | 0.00 | 0.00 | 1 | 1012.0 |
| 20260509090345 | 30 | 100 | 0.0 | 0.0 | 0.00 | 0.00 | 0.00 | 1 | 1011.9 |
| 20260509090238 | 30 | 100 | 0.0 | 0.0 | 0.00 | 0.00 | 0.00 | 1 | 1012.0 |
| 20260509090202 | 30 | 100 | 0.0 | 0.0 | 0.00 | 0.00 | 0.00 | 1 | 1012.0 |
| 20260509090105 | 30 | 100 | 0.0 | 0.0 | 0.00 | 0.00 | 0.00 | 1 | 1012.0 |
| 20260509090026 | 30 | 100 | 0.0 | 0.0 | 0.00 | 0.00 | 0.00 | 1 | 1012.0 |
| 20260509085856 | 30 | 100 | 0.0 | 0.0 | 0.00 | 0.00 | 0.00 | 1 | 1012.0 |
| 20260509085714 | 30 | 100 | 0.0 | 0.0 | 0.00 | 0.00 | 0.00 | 1 | 1012.0 |
| 20260509085629 | 30 | 100 | 0.0 | 0.0 | 0.00 | 0.00 | 0.00 | 1 | 1011.9 |
| 20260509085552 | 30 | 100 | 0.0 | 0.0 | 0.00 | 0.00 | 0.00 | 1 | 1011.9 |
| 20260509085515 | 30 | 100 | 0.0 | 0.0 | 0.00 | 0.00 | 0.00 | 1 | 1011.9 |
| 20260509085420 | 30 | 100 | 0.0 | 0.0 | 0.00 | 0.00 | 0.00 | 1 | 1011.9 |
| 20260509085340 | 30 | 100 | 0.0 | 0.0 | 0.00 | 0.00 | 0.00 | 1 | 1011.9 |
| 20260509085210 | 30 | 100 | 0.0 | 0.0 | 0.00 | 0.00 | 0.00 | 1 | 1011.9 |
| 20260509085024 | 30 | 100 | 0.0 | 0.0 | 0.00 | 0.00 | 0.00 | 1 | 1011.9 |
| 20260509084937 | 30 | 100 | 0.0 | 0.0 | 0.00 | 0.00 | 0.00 | 1 | 1011.9 |
| 20260509084841 | 30 | 100 | 0.0 | 0.0 | 0.00 | 0.00 | 0.00 | 1 | 1011.9 |
| 20260509084740 | 30 | 100 | 0.0 | 0.0 | 0.00 | 0.00 | 0.00 | 1 | 1011.9 |
| 20260509084624 | 30 | 100 | 0.0 | 0.0 | 0.00 | 0.00 | 0.00 | 1 | 1011.9 |
| 20260509084526 | 30 | 100 | 0.0 | 0.0 | 0.00 | 0.00 | 0.00 | 1 | 1011.9 |
| 20260509084450 | 30 | 100 | 0.0 | 0.0 | 0.00 | 0.00 | 0.00 | 1 | 1011.9 |
| 20260509084353 | 30 | 100 | 0.0 | 0.0 | 0.00 | 0.00 | 0.00 | 1 | 1011.9 |
| 20260509084234 | 30 | 100 | 0.0 | 0.0 | 0.00 | 0.00 | 0.00 | 1 | 1011.9 |
| 20260509084149 | 30 | 100 | 0.0 | 0.0 | 0.00 | 0.00 | 0.00 | 1 | 1011.8 |
| 20260509084028 | 30 | 100 | 0.0 | 0.0 | 0.00 | 0.00 | 0.00 | 1 | 1011.8 |
| 20260509083935 | 30 | 100 | 0.0 | 0.0 | 0.00 | 0.00 | 0.00 | 1 | 1011.8 |
| 20260509083856 | 30 | 100 | 0.0 | 0.0 | 0.00 | 0.00 | 0.00 | 1 | 1011.9 |
| 20260509083758 | 30 | 100 | 0.0 | 0.0 | 0.00 | 0.00 | 0.00 | 1 | 1011.9 |
| 20260509083623 | 30 | 100 | 0.0 | 0.0 | 0.00 | 0.00 | 0.00 | 1 | 1011.9 |
| 20260509083538 | 30 | 100 | 0.0 | 0.0 | 0.00 | 0.00 | 0.00 | 1 | 1011.9 |
| 20260509083409 | 30 | 100 | 0.0 | 0.0 | 0.00 | 0.00 | 0.00 | 1 | 1011.9 |
| 20260509083331 | 30 | 100 | 0.0 | 0.0 | 0.00 | 0.00 | 0.00 | 1 | 1011.9 |
| 20260509083133 | 30 | 100 | 0.0 | 0.0 | 0.00 | 0.00 | 0.00 | 1 | 1011.9 |
| 20260509083057 | 30 | 100 | 0.0 | 0.0 | 0.00 | 0.00 | 0.00 | 1 | 1011.9 |
| 20260509082946 | 30 | 100 | 0.0 | 0.0 | 0.00 | 0.00 | 0.00 | 1 | 1012.0 |
| 20260509082908 | 30 | 100 | 0.0 | 0.0 | 0.00 | 0.00 | 0.00 | 1 | 1012.0 |
| 20260509082646 | 30 | 100 | 0.0 | 0.0 | 0.00 | 0.00 | 0.00 | 1 | 1012.0 |
| 20260509082542 | 30 | 100 | 0.0 | 0.0 | 0.00 | 0.00 | 0.00 | 1 | 1012.0 |
| 20260509082446 | 30 | 100 | 0.0 | 0.0 | 0.00 | 0.00 | 0.00 | 1 | 1012.0 |
| 20260509082340 | 29 | 100 | 0.0 | 0.0 | 0.00 | 0.00 | 0.00 | 1 | 1012.0 |
| 20260509082306 | 29 | 100 | 0.0 | 0.0 | 0.00 | 0.00 | 0.00 | 1 | 1012.0 |
| 20260509082219 | 29 | 100 | 0.0 | 0.0 | 0.00 | 0.00 | 0.00 | 1 | 1012.0 |
| 20260509082028 | 29 | 100 | 0.0 | 0.0 | 0.00 | 0.00 | 0.00 | 1 | 1012.0 |
| 20260509081944 | 29 | 100 | 0.0 | 0.0 | 0.00 | 0.00 | 0.00 | 1 | 1012.0 |
| 20260509081819 | 30 | 100 | 0.0 | 0.0 | 0.00 | 0.00 | 0.00 | 1 | 1012.0 |
| 20260509081719 | 30 | 100 | 0.0 | 0.0 | 0.00 | 0.00 | 0.00 | 1 | 1011.9 |
| 20260509081521 | 30 | 100 | 0.0 | 0.0 | 0.00 | 0.00 | 0.00 | 1 | 1012.0 |
| 20260509081445 | 30 | 100 | 0.0 | 0.0 | 0.00 | 0.00 | 0.00 | 1 | 1012.0 |
| 20260509081328 | 30 | 100 | 0.0 | 0.0 | 0.00 | 0.00 | 0.00 | 1 | 1012.0 |
| 20260509081251 | 30 | 100 | 0.0 | 0.0 | 0.00 | 0.00 | 0.00 | 1 | 1012.0 |
| 20260509081203 | 30 | 100 | 0.0 | 0.0 | 0.00 | 0.00 | 0.00 | 1 | 1012.0 |
| 20260509081047 | 30 | 100 | 0.0 | 0.0 | 0.00 | 0.00 | 0.00 | 1 | 1012.1 |
| 20260509080947 | 30 | 100 | 0.0 | 0.0 | 0.00 | 0.00 | 0.00 | 1 | 1012.1 |
| 20260509080849 | 30 | 100 | 0.0 | 0.0 | 0.00 | 0.00 | 0.00 | 1 | 1012.1 |
| 20260509080753 | 30 | 100 | 0.0 | 0.0 | 0.00 | 0.00 | 0.00 | 1 | 1012.1 |
| 20260509080659 | 30 | 100 | 0.0 | 0.0 | 0.00 | 0.00 | 0.00 | 1 | 1012.1 |
| 20260509080621 | 30 | 100 | 0.0 | 0.0 | 0.00 | 0.00 | 0.00 | 1 | 1012.1 |
| 20260509080423 | 30 | 100 | 0.0 | 0.0 | 0.00 | 0.00 | 0.00 | 1 | 1012.1 |
| 20260509080345 | 30 | 100 | 0.0 | 0.0 | 0.00 | 0.00 | 0.00 | 1 | 1012.1 |
| 20260509080228 | 30 | 100 | 0.0 | 0.0 | 0.00 | 0.00 | 0.00 | 1 | 1012.2 |
| 20260509080123 | 30 | 100 | 0.0 | 0.0 | 0.00 | 0.00 | 0.00 | 1 | 1012.2 |
| 20260509080045 | 30 | 100 | 0.0 | 0.0 | 0.00 | 0.00 | 0.00 | 1 | 1012.2 |
| 20260509080008 | 30 | 100 | 0.0 | 0.0 | 0.00 | 0.00 | 0.00 | 1 | 1012.1 |
| 20260509075923 | 30 | 100 | 0.0 | 0.0 | 0.00 | 0.00 | 0.00 | 1 | 1012.1 |
| 20260509075737 | 30 | 100 | 0.0 | 0.0 | 0.00 | 0.00 | 0.00 | 1 | 1012.1 |
| 20260509075652 | 30 | 100 | 0.0 | 0.0 | 0.00 | 0.00 | 0.00 | 1 | 1012.1 |
| 20260509075613 | 30 | 100 | 0.0 | 0.0 | 0.00 | 0.00 | 0.00 | 1 | 1012.1 |
| 20260509075434 | 30 | 100 | 0.0 | 0.0 | 0.00 | 0.00 | 0.00 | 1 | 1012.1 |
| 20260509075328 | 30 | 100 | 0.0 | 0.0 | 0.00 | 0.00 | 0.00 | 1 | 1012.1 |
| 20260509075251 | 30 | 100 | 0.0 | 0.0 | 0.00 | 0.00 | 0.00 | 1 | 1012.1 |
| 20260509075155 | 30 | 100 | 0.0 | 0.0 | 0.00 | 0.00 | 0.00 | 1 | 1012.1 |
| 20260509075118 | 30 | 100 | 0.0 | 0.0 | 0.00 | 0.00 | 0.00 | 1 | 1012.1 |
| 20260509074924 | 30 | 100 | 0.0 | 0.0 | 0.00 | 0.00 | 0.00 | 1 | 1012.1 |
| 20260509074829 | 30 | 100 | 0.0 | 0.0 | 0.00 | 0.00 | 0.00 | 1 | 1012.1 |
| 20260509074731 | 30 | 100 | 0.0 | 0.0 | 0.00 | 0.00 | 0.00 | 1 | 1012.1 |
| 20260509074654 | 30 | 100 | 0.0 | 0.0 | 0.00 | 0.00 | 0.00 | 1 | 1012.1 |
| 20260509074616 | 30 | 100 | 0.0 | 0.0 | 0.00 | 0.00 | 0.00 | 1 | 1012.1 |
| 20260509074439 | 30 | 100 | 0.0 | 0.0 | 0.00 | 0.00 | 0.00 | 1 | 1012.1 |
| 20260509074342 | 30 | 100 | 0.0 | 0.0 | 0.00 | 0.00 | 0.00 | 1 | 1012.1 |
| 20260509074225 | 30 | 100 | 0.0 | 0.0 | 0.00 | 0.00 | 0.00 | 1 | 1012.1 |
| 20260509074147 | 30 | 100 | 0.0 | 0.0 | 0.00 | 0.00 | 0.00 | 1 | 1012.1 |
| 20260509074011 | 30 | 100 | 0.0 | 0.0 | 0.00 | 0.00 | 0.00 | 1 | 1012.1 |
| 20260509073933 | 30 | 100 | 0.0 | 0.0 | 0.00 | 0.00 | 0.00 | 1 | 1012.1 |
| 20260509073751 | 30 | 100 | 0.0 | 0.0 | 0.00 | 0.00 | 0.00 | 1 | 1012.1 |
| 20260509073656 | 30 | 100 | 0.0 | 0.0 | 0.00 | 0.00 | 0.00 | 1 | 1012.1 |
| 20260509073559 | 30 | 100 | 0.0 | 0.0 | 0.00 | 0.00 | 0.00 | 1 | 1012.1 |
| 20260509073523 | 30 | 100 | 0.0 | 0.0 | 0.00 | 0.00 | 0.00 | 1 | 1012.1 |
| 20260509073326 | 30 | 100 | 0.0 | 0.0 | 0.00 | 0.00 | 0.00 | 1 | 1012.1 |
| 20260509073228 | 30 | 100 | 0.0 | 0.0 | 0.00 | 0.00 | 0.00 | 1 | 1012.1 |
| 20260509073132 | 30 | 100 | 0.0 | 0.0 | 0.00 | 0.00 | 0.00 | 1 | 1012.1 |
| 20260509073053 | 30 | 100 | 0.0 | 0.0 | 0.00 | 0.00 | 0.00 | 1 | 1012.1 |
| 20260509073016 | 30 | 100 | 0.0 | 0.0 | 0.00 | 0.00 | 0.00 | 1 | 1012.1 |
| 20260509072840 | 30 | 100 | 0.0 | 0.0 | 0.00 | 0.00 | 0.00 | 1 | 1012.1 |
| 20260509072741 | 30 | 100 | 0.0 | 0.0 | 0.00 | 0.00 | 0.00 | 1 | 1012.1 |
| 20260509072627 | 30 | 100 | 0.0 | 0.0 | 0.00 | 0.00 | 0.00 | 1 | 1012.1 |
| 20260509072551 | 30 | 100 | 0.0 | 0.0 | 0.00 | 0.00 | 0.00 | 1 | 1012.1 |
| 20260509072504 | 30 | 101 | 0.0 | 0.0 | 0.00 | 0.00 | 0.00 | 1 | 1012.1 |
| 20260509072334 | 30 | 102 | 0.0 | 0.0 | 0.00 | 0.00 | 0.00 | 1 | 1012.1 |
| 20260509072235 | 30 | 102 | 0.0 | 0.0 | 0.00 | 0.00 | 0.00 | 1 | 1012.1 |
| 20260509072106 | 30 | 102 | 0.0 | 0.0 | 0.00 | 0.00 | 0.00 | 1 | 1012.2 |
| 20260509071942 | 30 | 102 | 0.0 | 0.0 | 0.00 | 0.00 | 0.00 | 1 | 1012.2 |
| 20260509071904 | 30 | 102 | 0.0 | 0.0 | 0.00 | 0.00 | 0.00 | 1 | 1012.2 |
| 20260509071808 | 30 | 102 | 0.0 | 0.0 | 0.00 | 0.00 | 0.00 | 1 | 1012.2 |
| 20260509071730 | 30 | 102 | 0.0 | 0.0 | 0.00 | 0.00 | 0.00 | 1 | 1012.2 |
| 20260509071537 | 30 | 102 | 0.0 | 0.0 | 0.00 | 0.00 | 0.00 | 1 | 1012.2 |
| 20260509071440 | 30 | 102 | 0.0 | 0.0 | 0.00 | 0.00 | 0.00 | 1 | 1012.2 |
| 20260509071323 | 30 | 102 | 0.0 | 0.0 | 0.00 | 0.00 | 0.00 | 1 | 1012.2 |
| 20260509071247 | 30 | 102 | 0.0 | 0.0 | 0.00 | 0.00 | 0.00 | 1 | 1012.2 |
| 20260509071221 | 30 | 102 | 0.0 | 0.0 | 0.00 | 0.00 | 0.00 | 1 | 1012.2 |
| 20260509071024 | 30 | 102 | 0.0 | 0.0 | 0.00 | 0.00 | 0.00 | 1 | 1012.3 |
| 20260509070939 | 30 | 102 | 0.0 | 0.0 | 0.00 | 0.00 | 0.00 | 1 | 1012.3 |
| 20260509070817 | 30 | 102 | 0.0 | 0.0 | 0.00 | 0.00 | 0.00 | 1 | 1012.3 |
| 20260509070752 | 30 | 102 | 0.0 | 0.0 | 0.00 | 0.00 | 0.00 | 1 | 1012.3 |
| 20260509070714 | 30 | 102 | 0.0 | 0.0 | 0.00 | 0.00 | 0.00 | 1 | 1012.3 |
| 20260509070617 | 30 | 102 | 0.0 | 0.0 | 0.00 | 0.00 | 0.00 | 1 | 1012.3 |
| 20260509070539 | 30 | 102 | 0.0 | 0.0 | 0.00 | 0.00 | 0.00 | 1 | 1012.3 |
| 20260509070408 | 30 | 102 | 0.0 | 0.0 | 0.00 | 0.00 | 0.00 | 1 | 1012.3 |
| 20260509070241 | 30 | 102 | 0.0 | 0.0 | 0.00 | 0.00 | 0.00 | 1 | 1012.3 |
| 20260509070124 | 30 | 102 | 0.0 | 0.0 | 0.00 | 0.00 | 0.00 | 1 | 1012.3 |
| 20260509070046 | 30 | 102 | 0.0 | 0.0 | 0.00 | 0.00 | 0.00 | 1 | 1012.3 |
| 20260509070008 | 30 | 102 | 0.0 | 0.0 | 0.00 | 0.00 | 0.00 | 1 | 1012.3 |
| 20260509065835 | 30 | 102 | 0.0 | 0.0 | 0.00 | 0.00 | 0.00 | 1 | 1012.3 |
| 20260509065756 | 30 | 102 | 0.0 | 0.0 | 0.00 | 0.00 | 0.00 | 1 | 1012.3 |
| 20260509065607 | 30 | 102 | 0.0 | 0.0 | 0.00 | 0.00 | 0.00 | 1 | 1012.3 |
| 20260509065527 | 30 | 102 | 0.0 | 0.0 | 0.00 | 0.00 | 0.00 | 1 | 1012.3 |
| 20260509065339 | 30 | 102 | 0.0 | 0.0 | 0.00 | 0.00 | 0.00 | 1 | 1012.3 |
| 20260509065233 | 30 | 102 | 0.0 | 0.0 | 0.00 | 0.00 | 0.00 | 1 | 1012.3 |
| 20260509065156 | 30 | 102 | 0.0 | 0.0 | 0.00 | 0.00 | 0.00 | 1 | 1012.3 |
| 20260509065023 | 30 | 102 | 0.0 | 0.0 | 0.00 | 0.00 | 0.00 | 1 | 1012.2 |
| 20260509064932 | 30 | 102 | 0.0 | 0.0 | 0.00 | 0.00 | 0.00 | 1 | 1012.2 |
| 20260509064855 | 30 | 102 | 0.0 | 0.0 | 0.00 | 0.00 | 0.00 | 1 | 1012.2 |
| 20260509064738 | 30 | 102 | 0.0 | 0.0 | 0.00 | 0.00 | 0.00 | 1 | 1012.2 |
| 20260509064701 | 30 | 102 | 0.0 | 0.0 | 0.00 | 0.00 | 0.00 | 1 | 1012.2 |
| 20260509064617 | 30 | 102 | 0.0 | 0.0 | 0.00 | 0.00 | 0.00 | 1 | 1012.2 |
| 20260509064426 | 30 | 102 | 0.0 | 0.0 | 0.00 | 0.00 | 0.00 | 1 | 1012.3 |
| 20260509064339 | 30 | 102 | 0.0 | 0.0 | 0.00 | 0.00 | 0.00 | 1 | 1012.2 |
| 20260509064210 | 30 | 102 | 0.0 | 0.0 | 0.00 | 0.00 | 0.00 | 1 | 1012.2 |
| 20260509064132 | 30 | 102 | 0.0 | 0.0 | 0.00 | 0.00 | 0.00 | 1 | 1012.4 |
| 20260509063934 | 30 | 102 | 0.0 | 0.0 | 0.00 | 0.00 | 0.00 | 1 | 1012.3 |
| 20260509063900 | 30 | 102 | 0.0 | 0.0 | 0.00 | 0.00 | 0.00 | 1 | 1012.3 |
| 20260509063805 | 30 | 102 | 0.0 | 1.0 | 0.00 | 0.00 | 0.00 | 1 | 1012.3 |
| 20260509063725 | 30 | 102 | 0.0 | 2.0 | 0.00 | 0.00 | 0.00 | 1 | 1012.3 |
| 20260509063529 | 30 | 102 | 0.0 | 2.0 | 0.00 | 0.00 | 0.00 | 1 | 1012.3 |
| 20260509063430 | 30 | 102 | 0.0 | 2.0 | 0.00 | 0.00 | 0.00 | 1 | 1012.3 |
| 20260509063333 | 30 | 102 | 0.0 | 2.0 | 0.00 | 0.00 | 0.00 | 1 | 1012.3 |
| 20260509063232 | 30 | 102 | 0.0 | 2.0 | 0.00 | 0.00 | 0.00 | 1 | 1012.2 |
| 20260509063157 | 30 | 102 | 0.0 | 2.0 | 0.00 | 0.00 | 0.00 | 1 | 1012.2 |
| 20260509063025 | 30 | 102 | 1.0 | 2.0 | 0.00 | 0.00 | 0.00 | 1 | 1012.3 |
| 20260509062938 | 30 | 102 | 1.0 | 2.0 | 0.00 | 0.00 | 0.00 | 1 | 1012.3 |
| 20260509062842 | 30 | 103 | 1.0 | 2.0 | 0.00 | 0.00 | 0.00 | 1 | 1012.3 |
| 20260509062723 | 30 | 103 | 1.0 | 2.0 | 0.00 | 0.00 | 0.00 | 1 | 1012.3 |
| 20260509062647 | 30 | 103 | 1.0 | 2.0 | 0.00 | 0.00 | 0.00 | 1 | 1012.3 |
| 20260509062542 | 30 | 103 | 1.0 | 1.0 | 0.00 | 0.00 | 0.00 | 1 | 1012.2 |
| 20260509062424 | 30 | 103 | 0.0 | 1.0 | 0.00 | 0.00 | 0.00 | 1 | 1012.2 |
| 20260509062347 | 30 | 103 | 0.0 | 1.0 | 0.00 | 0.00 | 0.00 | 1 | 1012.2 |
| 20260509062310 | 30 | 103 | 0.0 | 1.0 | 0.00 | 0.00 | 0.00 | 1 | 1012.2 |
| 20260509062157 | 30 | 103 | 0.0 | 1.0 | 0.00 | 0.00 | 0.00 | 1 | 1012.2 |
| 20260509062118 | 30 | 103 | 0.0 | 1.0 | 0.00 | 0.00 | 0.00 | 1 | 1012.2 |
| 20260509061923 | 30 | 103 | 0.0 | 0.0 | 0.00 | 0.00 | 0.00 | 1 | 1012.2 |
| 20260509061824 | 30 | 103 | 0.0 | 0.0 | 0.00 | 0.00 | 0.00 | 1 | 1012.2 |
| 20260509061737 | 30 | 103 | 0.0 | 0.0 | 0.00 | 0.00 | 0.00 | 1 | 1012.3 |
| 20260509061659 | 30 | 103 | 0.0 | 0.0 | 0.00 | 0.00 | 0.00 | 1 | 1012.3 |
| 20260509061623 | 30 | 103 | 0.0 | 0.0 | 0.00 | 0.00 | 0.00 | 1 | 1012.3 |
| 20260509061333 | 30 | 103 | 0.0 | 0.0 | 0.00 | 0.00 | 0.00 | 1 | 1012.2 |
| 20260509061256 | 30 | 103 | 0.0 | 0.0 | 0.00 | 0.00 | 0.00 | 1 | 1012.2 |
| 20260509061144 | 30 | 103 | 0.0 | 0.0 | 0.00 | 0.00 | 0.00 | 1 | 1012.2 |
| 20260509061105 | 30 | 103 | 0.0 | 0.0 | 0.00 | 0.00 | 0.00 | 1 | 1012.3 |
| 20260509060936 | 30 | 103 | 0.0 | 0.0 | 0.00 | 0.00 | 0.00 | 1 | 1012.3 |
| 20260509060830 | 30 | 103 | 0.0 | 0.0 | 0.00 | 0.00 | 0.00 | 1 | 1012.3 |
| 20260509060640 | 30 | 103 | 0.0 | 0.0 | 0.00 | 0.00 | 0.00 | 1 | 1012.3 |
| 20260509060534 | 31 | 103 | 0.0 | 0.0 | 0.00 | 0.00 | 0.00 | 1 | 1012.3 |
| 20260509060458 | 31 | 103 | 0.0 | 0.0 | 0.00 | 0.00 | 0.00 | 1 | 1012.3 |
| 20260509060322 | 31 | 103 | 0.0 | 0.0 | 0.00 | 0.00 | 0.00 | 1 | 1012.3 |
| 20260509060237 | 31 | 103 | 0.0 | 0.0 | 0.00 | 0.00 | 0.00 | 1 | 1012.3 |
| 20260509060111 | 31 | 103 | 0.0 | 0.0 | 0.00 | 0.00 | 0.00 | 1 | 1012.3 |
| 20260509060014 | 31 | 103 | 0.0 | 0.0 | 0.00 | 0.00 | 0.00 | 1 | 1012.3 |
| 20260509055856 | 31 | 103 | 0.0 | 0.0 | 0.00 | 0.00 | 0.00 | 1 | 1012.3 |
| 20260509055736 | 31 | 103 | 0.0 | 0.0 | 0.00 | 0.00 | 0.00 | 1 | 1012.3 |
| 20260509055639 | 31 | 103 | 0.0 | 0.0 | 0.00 | 0.00 | 0.00 | 1 | 1012.3 |
| 20260509055543 | 31 | 103 | 0.0 | 0.0 | 0.00 | 0.00 | 0.00 | 1 | 1012.3 |
| 20260509055439 | 31 | 103 | 0.0 | 0.0 | 0.00 | 0.00 | 0.00 | 1 | 1012.3 |
| 20260509055322 | 31 | 103 | 0.0 | 0.0 | 0.00 | 0.00 | 0.00 | 1 | 1012.3 |
| 20260509055227 | 31 | 103 | 0.0 | 0.0 | 0.00 | 0.00 | 0.00 | 1 | 1012.3 |
| 20260509055149 | 31 | 103 | 0.0 | 0.0 | 0.00 | 0.00 | 0.00 | 1 | 1012.3 |
| 20260509055054 | 31 | 103 | 0.0 | 0.0 | 0.00 | 0.00 | 0.00 | 1 | 1012.3 |
| 20260509055017 | 31 | 103 | 0.0 | 0.0 | 0.00 | 0.00 | 0.00 | 1 | 1012.3 |
| 20260509054919 | 31 | 103 | 0.0 | 0.0 | 0.00 | 0.00 | 0.00 | 1 | 1012.3 |
| 20260509054822 | 31 | 103 | 0.0 | 0.0 | 0.00 | 0.00 | 0.00 | 1 | 1012.3 |
| 20260509054742 | 31 | 103 | 0.0 | 0.0 | 0.00 | 0.00 | 0.00 | 1 | 1012.3 |
| 20260509054614 | 31 | 103 | 0.0 | 0.0 | 0.00 | 0.00 | 0.00 | 1 | 1012.3 |
| 20260509054507 | 31 | 103 | 0.0 | 0.0 | 0.00 | 0.00 | 0.00 | 1 | 1012.3 |
| 20260509054347 | 31 | 103 | 0.0 | 0.0 | 0.00 | 0.00 | 0.00 | 1 | 1012.4 |
| 20260509054249 | 31 | 103 | 0.0 | 0.0 | 0.00 | 0.00 | 0.00 | 1 | 1012.4 |
| 20260509054132 | 31 | 103 | 0.0 | 0.0 | 0.00 | 0.00 | 0.00 | 1 | 1012.4 |
| 20260509054059 | 31 | 103 | 0.0 | 0.0 | 0.00 | 0.00 | 0.00 | 1 | 1012.4 |
| 20260509053922 | 31 | 103 | 0.0 | 0.0 | 0.00 | 0.00 | 0.00 | 1 | 1012.4 |
| 20260509053845 | 31 | 103 | 0.0 | 0.0 | 0.00 | 0.00 | 0.00 | 1 | 1012.4 |
| 20260509053807 | 31 | 103 | 0.0 | 0.0 | 0.00 | 0.00 | 0.00 | 1 | 1012.4 |
| 20260509053711 | 31 | 103 | 0.0 | 0.0 | 0.00 | 0.00 | 0.00 | 1 | 1012.4 |
| 20260509053634 | 31 | 103 | 0.0 | 0.0 | 0.00 | 0.00 | 0.00 | 1 | 1012.3 |
| 20260509053436 | 31 | 103 | 0.0 | 0.0 | 0.00 | 0.00 | 0.00 | 1 | 1012.5 |
| 20260509053337 | 31 | 103 | 0.0 | 0.0 | 0.00 | 0.00 | 0.00 | 1 | 1012.5 |
| 20260509053243 | 31 | 103 | 0.0 | 0.0 | 0.00 | 0.00 | 0.00 | 1 | 1012.5 |
| 20260509053204 | 31 | 103 | 0.0 | 0.0 | 0.00 | 0.00 | 0.00 | 1 | 1012.5 |
| 20260509053040 | 31 | 103 | 0.0 | 0.0 | 0.00 | 0.00 | 0.00 | 1 | 1012.4 |
| 20260509052933 | 31 | 103 | 0.0 | 0.0 | 0.00 | 0.00 | 0.00 | 1 | 1012.4 |
| 20260509052742 | 31 | 103 | 0.0 | 0.0 | 0.00 | 0.00 | 0.00 | 1 | 1012.4 |
| 20260509052657 | 31 | 103 | 0.0 | 0.0 | 0.00 | 0.00 | 0.00 | 1 | 1012.4 |
| 20260509052506 | 31 | 103 | 0.0 | 0.0 | 0.00 | 0.00 | 0.00 | 1 | 1012.4 |
| 20260509052427 | 31 | 103 | 0.0 | 0.0 | 0.00 | 0.00 | 0.00 | 1 | 1012.4 |
| 20260509052231 | 32 | 103 | 0.0 | 0.0 | 0.00 | 0.00 | 0.00 | 1 | 1012.4 |
| 20260509052134 | 32 | 103 | 0.0 | 0.0 | 0.00 | 0.00 | 0.00 | 1 | 1012.4 |
| 20260509052037 | 32 | 103 | 0.0 | 0.0 | 0.00 | 0.00 | 0.00 | 1 | 1012.4 |
| 20260509051959 | 32 | 103 | 0.0 | 0.0 | 0.00 | 0.00 | 0.00 | 1 | 1012.4 |
| 20260509051904 | 32 | 103 | 0.0 | 1.0 | 0.00 | 0.00 | 0.00 | 1 | 1012.4 |
| 20260509051808 | 32 | 103 | 0.0 | 1.0 | 0.00 | 0.00 | 0.00 | 1 | 1012.4 |
| 20260509051728 | 32 | 103 | 0.0 | 1.0 | 0.00 | 0.00 | 0.00 | 1 | 1012.4 |
| 20260509051533 | 32 | 103 | 0.0 | 2.0 | 0.00 | 0.00 | 0.00 | 1 | 1012.4 |
| 20260509051435 | 32 | 103 | 0.0 | 2.0 | 0.00 | 0.00 | 0.00 | 1 | 1012.4 |
| 20260509051338 | 32 | 103 | 0.0 | 3.0 | 0.00 | 0.00 | 0.00 | 1 | 1012.3 |
| 20260509051302 | 32 | 103 | 0.0 | 3.0 | 0.00 | 0.00 | 0.00 | 1 | 1012.3 |
| 20260509051223 | 32 | 103 | 0.0 | 3.0 | 0.00 | 0.00 | 0.00 | 1 | 1012.3 |
| 20260509051026 | 32 | 103 | 0.0 | 3.0 | 0.00 | 0.00 | 0.00 | 1 | 1012.3 |
| 20260509050950 | 32 | 103 | 1.0 | 3.0 | 0.00 | 0.00 | 0.00 | 1 | 1012.3 |
| 20260509050838 | 32 | 103 | 1.0 | 3.0 | 0.00 | 0.00 | 0.00 | 1 | 1012.2 |
| 20260509050801 | 32 | 91 | 1.0 | 3.0 | 0.00 | 0.00 | 0.00 | 1 | 1012.2 |
| 20260509050623 | 32 | 92 | 1.0 | 3.0 | 0.00 | 0.00 | 0.00 | 1 | 1012.2 |
| 20260509050547 | 32 | 92 | 1.0 | 3.0 | 0.00 | 0.00 | 0.00 | 1 | 1012.2 |
| 20260509050441 | 32 | 101 | 0.0 | 0.0 | 0.00 | 0.00 | 0.00 | 1 | 1012.2 |
| 20260509050323 | 32 | 101 | 0.0 | 0.0 | 0.00 | 0.00 | 0.00 | 1 | 1012.2 |
| 20260509050245 | 32 | 101 | 0.0 | 0.0 | 0.00 | 0.00 | 0.00 | 1 | 1012.2 |
| 20260509050207 | 32 | 101 | 0.0 | 0.0 | 0.00 | 0.00 | 0.00 | 1 | 1012.2 |
| 20260509050025 | 32 | 101 | 0.0 | 0.0 | 0.00 | 0.00 | 0.00 | 1 | 1012.2 |
| 20260509045926 | 32 | 101 | 0.0 | 0.0 | 0.00 | 0.00 | 0.00 | 1 | 1012.3 |
| 20260509045830 | 32 | 101 | 0.0 | 0.0 | 0.00 | 0.00 | 0.00 | 1 | 1012.2 |
| 20260509045754 | 32 | 101 | 0.0 | 0.0 | 0.00 | 0.00 | 0.00 | 1 | 1012.2 |
| 20260509045715 | 32 | 101 | 0.0 | 0.0 | 0.00 | 0.00 | 0.00 | 1 | 1012.3 |
| 20260509045539 | 32 | 101 | 0.0 | 0.0 | 0.00 | 0.00 | 0.00 | 1 | 1012.3 |
| 20260509045443 | 32 | 101 | 0.0 | 0.0 | 0.00 | 0.00 | 0.00 | 1 | 1012.3 |
| 20260509045325 | 32 | 101 | 0.0 | 0.0 | 0.00 | 0.00 | 0.00 | 1 | 1012.3 |
| 20260509045248 | 32 | 101 | 0.0 | 0.0 | 0.00 | 0.00 | 0.00 | 1 | 1012.3 |
| 20260509045128 | 32 | 101 | 0.0 | 0.0 | 0.00 | 0.00 | 0.00 | 1 | 1012.3 |
| 20260509045022 | 32 | 101 | 0.0 | 0.0 | 0.00 | 0.00 | 0.00 | 1 | 1012.3 |
| 20260509044946 | 32 | 101 | 0.0 | 0.0 | 0.00 | 0.00 | 0.00 | 1 | 1012.3 |
| 20260509044823 | 32 | 101 | 0.0 | 0.0 | 0.00 | 0.00 | 0.00 | 1 | 1012.3 |
| 20260509044734 | 32 | 101 | 0.0 | 0.0 | 0.00 | 0.00 | 0.00 | 1 | 1012.3 |
| 20260509044659 | 32 | 101 | 0.0 | 0.0 | 0.00 | 0.00 | 0.00 | 1 | 1012.3 |
| 20260509044620 | 32 | 101 | 0.0 | 0.0 | 0.00 | 0.00 | 0.00 | 1 | 1012.3 |
| 20260509044426 | 32 | 101 | 0.0 | 0.0 | 0.00 | 0.00 | 0.00 | 1 | 1012.4 |
| 20260509044349 | 32 | 101 | 0.0 | 0.0 | 0.00 | 0.00 | 0.00 | 1 | 1012.4 |
| 20260509044224 | 32 | 101 | 0.0 | 0.0 | 0.00 | 0.00 | 0.00 | 1 | 1012.3 |
| 20260509044136 | 32 | 101 | 0.0 | 0.0 | 0.00 | 0.00 | 0.00 | 1 | 1012.3 |
| 20260509044059 | 32 | 101 | 0.0 | 0.0 | 0.00 | 0.00 | 0.00 | 1 | 1012.3 |
| 20260509044011 | 32 | 101 | 0.0 | 0.0 | 0.00 | 0.00 | 0.00 | 1 | 1012.3 |
| 20260509043916 | 32 | 101 | 0.0 | 0.0 | 0.00 | 0.00 | 0.00 | 1 | 1012.3 |
| 20260509043838 | 32 | 101 | 0.0 | 0.0 | 0.00 | 0.00 | 0.00 | 1 | 1012.3 |
| 20260509043708 | 32 | 101 | 0.0 | 0.0 | 0.00 | 0.00 | 0.00 | 1 | 1012.3 |
| 20260509043526 | 32 | 101 | 0.0 | 0.0 | 0.00 | 0.00 | 0.00 | 1 | 1012.3 |
| 20260509043430 | 32 | 101 | 0.0 | 0.0 | 0.00 | 0.00 | 0.00 | 1 | 1012.3 |
| 20260509043331 | 32 | 101 | 0.0 | 0.0 | 0.00 | 0.00 | 0.00 | 1 | 1012.3 |
| 20260509043135 | 33 | 101 | 0.0 | 0.0 | 0.00 | 0.00 | 0.00 | 1 | 1012.3 |
| 20260509043036 | 33 | 101 | 0.0 | 0.0 | 0.00 | 0.00 | 0.00 | 1 | 1012.3 |
| 20260509042943 | 33 | 101 | 0.0 | 0.0 | 0.00 | 0.00 | 0.00 | 1 | 1012.3 |
| 20260509042904 | 33 | 101 | 0.0 | 0.0 | 0.00 | 0.00 | 0.00 | 1 | 1012.2 |
| 20260509042734 | 33 | 101 | 0.0 | 1.0 | 0.00 | 0.00 | 0.00 | 1 | 1012.2 |
| 20260509042626 | 33 | 101 | 0.0 | 2.0 | 0.00 | 0.00 | 0.00 | 1 | 1012.3 |
| 20260509042436 | 33 | 101 | 0.0 | 2.0 | 0.00 | 0.00 | 0.00 | 1 | 1012.3 |
| 20260509042342 | 33 | 101 | 0.0 | 2.0 | 0.00 | 0.00 | 0.00 | 1 | 1012.3 |
| 20260509042246 | 33 | 101 | 0.0 | 2.0 | 0.00 | 0.00 | 0.00 | 1 | 1012.3 |
| 20260509042145 | 33 | 101 | 0.0 | 2.0 | 0.00 | 0.00 | 0.00 | 1 | 1012.3 |
| 20260509042016 | 33 | 101 | 0.0 | 2.0 | 0.00 | 0.00 | 0.00 | 1 | 1012.2 |
| 20260509041932 | 33 | 101 | 0.0 | 2.0 | 0.00 | 0.00 | 0.00 | 1 | 1012.2 |
| 20260509041802 | 33 | 101 | 0.0 | 2.0 | 0.00 | 0.00 | 0.00 | 1 | 1012.2 |
| 20260509041712 | 33 | 101 | 0.0 | 1.0 | 0.00 | 0.00 | 0.00 | 1 | 1012.2 |
| 20260509041554 | 33 | 101 | 0.0 | 0.0 | 0.00 | 0.00 | 0.00 | 1 | 1012.2 |
| 20260509041455 | 33 | 101 | 0.0 | 0.0 | 0.00 | 0.00 | 0.00 | 1 | 1012.2 |
| 20260509041325 | 33 | 101 | 0.0 | 0.0 | 0.00 | 0.00 | 0.00 | 1 | 1012.2 |
| 20260509041218 | 33 | 101 | 0.0 | 0.0 | 0.00 | 0.00 | 0.00 | 1 | 1012.2 |
| 20260509041038 | 33 | 101 | 0.0 | 0.0 | 0.00 | 0.00 | 0.00 | 1 | 1012.1 |
| 20260509041007 | 33 | 101 | 0.0 | 0.0 | 0.00 | 0.00 | 0.00 | 1 | 1012.1 |
| 20260509040922 | 33 | 101 | 0.0 | 0.0 | 0.00 | 0.00 | 0.00 | 1 | 1012.1 |
| 20260509040752 | 33 | 101 | 0.0 | 0.0 | 0.00 | 0.00 | 0.00 | 1 | 1012.1 |
| 20260509040624 | 33 | 101 | 0.0 | 0.0 | 0.00 | 0.00 | 0.00 | 1 | 1012.1 |
| 20260509040517 | 33 | 101 | 0.0 | 0.0 | 0.00 | 0.00 | 0.00 | 1 | 1012.1 |
| 20260509040346 | 33 | 101 | 0.0 | 0.0 | 0.00 | 0.00 | 0.00 | 1 | 1012.1 |
| 20260509040247 | 33 | 101 | 0.0 | 0.0 | 0.00 | 0.00 | 0.00 | 1 | 1012.1 |
| 20260509040130 | 33 | 101 | 0.0 | 0.0 | 0.00 | 0.00 | 0.00 | 1 | 1012.1 |
| 20260509040052 | 33 | 101 | 0.0 | 0.0 | 0.00 | 0.00 | 0.00 | 1 | 1012.1 |
| 20260509040007 | 34 | 101 | 0.0 | 0.0 | 0.00 | 0.00 | 0.00 | 1 | 1012.1 |
| 20260509035836 | 34 | 101 | 0.0 | 0.0 | 0.00 | 0.00 | 0.00 | 1 | 1012.1 |
| 20260509035736 | 34 | 101 | 0.0 | 0.0 | 0.00 | 0.00 | 0.00 | 1 | 1012.1 |
| 20260509035522 | 34 | 101 | 0.0 | 0.0 | 0.00 | 0.00 | 0.00 | 1 | 1012.1 |
| 20260509035446 | 34 | 101 | 0.0 | 0.0 | 0.00 | 0.00 | 0.00 | 1 | 1012.1 |
| 20260509035330 | 34 | 101 | 0.0 | 0.0 | 0.00 | 0.00 | 0.00 | 1 | 1012.1 |
| 20260509035252 | 34 | 101 | 0.0 | 0.0 | 0.00 | 0.00 | 0.00 | 1 | 1012.1 |
| 20260509035206 | 34 | 101 | 0.0 | 0.0 | 0.00 | 0.00 | 0.00 | 1 | 1012.1 |
| 20260509035037 | 34 | 101 | 0.0 | 0.0 | 0.00 | 0.00 | 0.00 | 1 | 1012.1 |
| 20260509034938 | 34 | 101 | 0.0 | 0.0 | 0.00 | 0.00 | 0.00 | 1 | 1012.0 |
| 20260509034807 | 34 | 101 | 0.0 | 0.0 | 0.00 | 0.00 | 0.00 | 1 | 1012.0 |
| 20260509034722 | 34 | 101 | 0.0 | 1.0 | 0.00 | 0.00 | 0.00 | 1 | 1012.0 |
| 20260509034510 | 34 | 101 | 0.0 | 2.0 | 0.00 | 0.00 | 0.00 | 1 | 1012.0 |
| 20260509034433 | 34 | 101 | 0.0 | 2.0 | 0.00 | 0.00 | 0.00 | 1 | 1012.0 |
| 20260509034321 | 34 | 101 | 0.0 | 2.0 | 0.00 | 0.00 | 0.00 | 1 | 1012.0 |
| 20260509034232 | 34 | 101 | 0.0 | 2.0 | 0.00 | 0.00 | 0.00 | 1 | 1012.0 |
| 20260509034026 | 34 | 101 | 0.0 | 2.0 | 0.00 | 0.00 | 0.00 | 1 | 1012.0 |
| 20260509033927 | 34 | 101 | 1.0 | 2.0 | 0.00 | 0.00 | 0.00 | 1 | 1012.0 |
| 20260509033831 | 34 | 101 | 1.0 | 2.0 | 0.00 | 0.00 | 0.00 | 1 | 1012.0 |
| 20260509033754 | 34 | 101 | 0.0 | 2.0 | 0.00 | 0.00 | 0.00 | 1 | 1012.0 |
| 20260509033716 | 34 | 101 | 0.0 | 0.0 | 0.00 | 0.00 | 0.00 | 1 | 1012.0 |
| 20260509033539 | 34 | 101 | 0.0 | 0.0 | 0.00 | 0.00 | 0.00 | 1 | 1012.0 |
| 20260509033444 | 34 | 101 | 0.0 | 0.0 | 0.00 | 0.00 | 0.00 | 1 | 1012.0 |
| 20260509033341 | 34 | 101 | 0.0 | 0.0 | 0.00 | 0.00 | 0.00 | 1 | 1011.9 |
| 20260509033304 | 34 | 101 | 0.0 | 0.0 | 0.00 | 0.00 | 0.00 | 1 | 1011.9 |
| 20260509033208 | 34 | 101 | 0.0 | 0.0 | 0.00 | 0.00 | 0.00 | 1 | 1012.0 |
| 20260509033129 | 34 | 101 | 0.0 | 0.0 | 0.00 | 0.00 | 0.00 | 1 | 1012.0 |
| 20260509032933 | 34 | 101 | 0.0 | 0.0 | 0.00 | 0.00 | 0.00 | 1 | 1012.0 |
| 20260509032836 | 35 | 101 | 0.0 | 0.0 | 0.00 | 0.00 | 0.00 | 1 | 1012.0 |
| 20260509032742 | 35 | 101 | 0.0 | 0.0 | 0.00 | 0.00 | 0.00 | 1 | 1012.0 |
| 20260509032700 | 35 | 101 | 0.0 | 0.0 | 0.00 | 0.00 | 0.00 | 1 | 1012.0 |
| 20260509032532 | 35 | 101 | 0.0 | 0.0 | 0.00 | 0.00 | 0.00 | 1 | 1012.0 |
| 20260509032426 | 35 | 101 | 0.0 | 0.0 | 0.00 | 0.00 | 0.00 | 1 | 1012.0 |
| 20260509032239 | 35 | 101 | 0.0 | 0.0 | 0.00 | 0.00 | 0.00 | 1 | 1012.0 |
| 20260509032156 | 35 | 101 | 0.0 | 0.0 | 0.00 | 0.00 | 0.00 | 1 | 1012.0 |
| 20260509032117 | 35 | 101 | 0.0 | 0.0 | 0.00 | 0.00 | 0.00 | 1 | 1012.0 |
| 20260509031929 | 35 | 101 | 0.0 | 0.0 | 0.00 | 0.00 | 0.00 | 1 | 1011.9 |
| 20260509031824 | 35 | 101 | 0.0 | 0.0 | 0.00 | 0.00 | 0.00 | 1 | 1011.9 |
| 20260509031747 | 35 | 101 | 0.0 | 0.0 | 0.00 | 0.00 | 0.00 | 1 | 1011.9 |
| 20260509031633 | 35 | 101 | 0.0 | 0.0 | 0.00 | 0.00 | 0.00 | 1 | 1011.9 |
| 20260509031554 | 35 | 101 | 0.0 | 0.0 | 0.00 | 0.00 | 0.00 | 1 | 1011.9 |
| 20260509031418 | 35 | 101 | 0.0 | 0.0 | 0.00 | 0.00 | 0.00 | 1 | 1011.9 |
| 20260509031342 | 35 | 101 | 0.0 | 0.0 | 0.00 | 0.00 | 0.00 | 1 | 1011.9 |
| 20260509031222 | 35 | 101 | 0.0 | 0.0 | 0.00 | 0.00 | 0.00 | 1 | 1011.8 |
| 20260509031137 | 35 | 101 | 0.0 | 0.0 | 0.00 | 0.00 | 0.00 | 1 | 1011.8 |
| 20260509031008 | 35 | 101 | 0.0 | 0.0 | 0.00 | 0.00 | 0.00 | 1 | 1011.8 |
| 20260509030931 | 35 | 101 | 0.0 | 0.0 | 0.00 | 0.00 | 0.00 | 1 | 1011.8 |